| time (UTC) | temp F | wind direction | speed MPH | gust MPH | rain 1hr in | rain 24hr in | rain mn in | humidity % | barometer mb |
| 20260506214544 | 73 | 95 | 0.0 | 4.0 | 0.00 | 0.06 | 0.06 | 74 | 1007.6 |
| 20260506214524 | 73 | 94 | 1.0 | 4.0 | 0.00 | 0.06 | 0.06 | 74 | 1008.1 |
| 20260506214437 | 74 | 279 | 1.0 | 4.0 | 0.00 | 0.06 | 0.06 | 73 | 1008.1 |
| 20260506214343 | 74 | 75 | 1.0 | 4.0 | 0.00 | 0.06 | 0.06 | 74 | 1008.1 |
| 20260506214234 | 74 | 291 | 0.0 | 6.0 | 0.00 | 0.06 | 0.06 | 74 | 1008.1 |
| 20260506214119 | 74 | 5 | 0.0 | 6.0 | 0.00 | 0.06 | 0.06 | 74 | 1008.1 |
| 20260506214026 | 74 | 329 | 0.0 | 6.0 | 0.00 | 0.06 | 0.06 | 73 | 1008.0 |
| 20260506213910 | 74 | 294 | 0.0 | 6.0 | 0.00 | 0.06 | 0.06 | 73 | 1007.9 |
| 20260506213821 | 74 | 298 | 0.0 | 6.0 | 0.00 | 0.06 | 0.06 | 73 | 1007.9 |
| 20260506213734 | 74 | 34 | 0.0 | 6.0 | 0.00 | 0.06 | 0.06 | 73 | 1008.0 |
| 20260506213620 | 74 | 85 | 1.0 | 6.0 | 0.00 | 0.06 | 0.06 | 73 | 1008.0 |
| 20260506213526 | 74 | 284 | 2.0 | 6.0 | 0.00 | 0.06 | 0.06 | 73 | 1007.9 |
| 20260506213412 | 74 | 342 | 0.0 | 1.0 | 0.00 | 0.06 | 0.06 | 73 | 1007.8 |
| 20260506213343 | 74 | 38 | 0.0 | 0.0 | 0.00 | 0.06 | 0.06 | 72 | 1007.8 |
| 20260506213209 | 74 | 52 | 0.0 | 0.0 | 0.00 | 0.06 | 0.06 | 73 | 1007.8 |
| 20260506213135 | 74 | 32 | 0.0 | 0.0 | 0.00 | 0.06 | 0.06 | 74 | 1007.8 |
| 20260506213043 | 74 | 330 | 0.0 | 0.0 | 0.00 | 0.06 | 0.06 | 74 | 1007.3 |
| 20260506213033 | 74 | 281 | 0.0 | 0.0 | 0.00 | 0.06 | 0.06 | 75 | 1007.8 |
| 20260506212913 | 74 | 65 | 0.0 | 0.0 | 0.00 | 0.06 | 0.06 | 74 | 1007.7 |
| 20260506212826 | 74 | 47 | 0.0 | 0.0 | 0.00 | 0.06 | 0.06 | 73 | 1007.7 |
| 20260506212716 | 74 | 82 | 0.0 | 0.0 | 0.00 | 0.06 | 0.06 | 75 | 1007.8 |
| 20260506212622 | 74 | 335 | 0.0 | 0.0 | 0.00 | 0.06 | 0.06 | 74 | 1007.8 |
| 20260506212528 | 74 | 223 | 0.0 | 0.0 | 0.00 | 0.06 | 0.06 | 73 | 1007.8 |
| 20260506212414 | 74 | 232 | 0.0 | 0.0 | 0.00 | 0.06 | 0.06 | 74 | 1007.8 |
| 20260506212320 | 74 | 289 | 0.0 | 0.0 | 0.00 | 0.06 | 0.06 | 74 | 1007.8 |
| 20260506212233 | 74 | 324 | 0.0 | 0.0 | 0.00 | 0.06 | 0.06 | 74 | 1007.8 |
| 20260506212123 | 74 | 89 | 0.0 | 0.0 | 0.00 | 0.06 | 0.06 | 73 | 1007.9 |
| 20260506212049 | 74 | 331 | 0.0 | 0.0 | 0.00 | 0.06 | 0.06 | 74 | 1007.8 |
| 20260506211914 | 74 | 17 | 0.0 | 0.0 | 0.00 | 0.06 | 0.06 | 74 | 1007.9 |
| 20260506211827 | 74 | 57 | 0.0 | 0.0 | 0.00 | 0.06 | 0.06 | 75 | 1007.9 |
| 20260506211729 | 74 | 125 | 0.0 | 1.0 | 0.00 | 0.06 | 0.06 | 74 | 1007.8 |
| 20260506211612 | 74 | 25 | 0.0 | 5.0 | 0.00 | 0.06 | 0.06 | 74 | 1007.8 |
| 20260506211551 | 73 | 16 | 0.0 | 5.0 | 0.00 | 0.06 | 0.06 | 74 | 1007.3 |
| 20260506211521 | 74 | 16 | 0.0 | 5.0 | 0.00 | 0.06 | 0.06 | 74 | 1007.8 |
| 20260506211435 | 74 | 10 | 0.0 | 5.0 | 0.00 | 0.06 | 0.06 | 74 | 1007.7 |
| 20260506211341 | 74 | 249 | 0.0 | 5.0 | 0.00 | 0.06 | 0.06 | 73 | 1007.7 |
| 20260506211226 | 74 | 262 | 0.0 | 5.0 | 0.00 | 0.06 | 0.06 | 73 | 1007.7 |
| 20260506211112 | 74 | 67 | 0.0 | 5.0 | 0.00 | 0.06 | 0.06 | 73 | 1007.8 |
| 20260506211018 | 74 | 239 | 0.0 | 5.0 | 0.00 | 0.06 | 0.06 | 73 | 1007.8 |
| 20260506210935 | 74 | 329 | 1.0 | 5.0 | 0.00 | 0.06 | 0.06 | 73 | 1007.8 |
| 20260506210820 | 74 | 277 | 1.0 | 5.0 | 0.00 | 0.06 | 0.06 | 74 | 1007.8 |
| 20260506210726 | 74 | 269 | 0.0 | 2.0 | 0.00 | 0.06 | 0.06 | 74 | 1007.9 |
| 20260506210613 | 74 | 297 | 0.0 | 2.0 | 0.00 | 0.06 | 0.06 | 74 | 1007.9 |
| 20260506210515 | 74 | 11 | 0.0 | 1.0 | 0.00 | 0.06 | 0.06 | 74 | 1007.9 |
| 20260506210433 | 74 | 5 | 0.0 | 1.0 | 0.00 | 0.06 | 0.06 | 74 | 1007.9 |
| 20260506210311 | 74 | 50 | 0.0 | 1.0 | 0.00 | 0.06 | 0.06 | 75 | 1007.9 |
| 20260506210224 | 74 | 313 | 0.0 | 1.0 | 0.00 | 0.06 | 0.06 | 75 | 1007.9 |
| 20260506210110 | 74 | 38 | 0.0 | 2.0 | 0.00 | 0.06 | 0.06 | 75 | 1007.8 |
| 20260506210056 | 73 | 44 | 0.0 | 2.0 | 0.00 | 0.06 | 0.06 | 75 | 1007.3 |
| 20260506210016 | 74 | 297 | 0.0 | 2.0 | 0.00 | 0.06 | 0.06 | 75 | 1007.8 |
| 20260506205923 | 74 | 308 | 0.0 | 2.0 | 0.00 | 0.06 | 0.06 | 75 | 1007.8 |
| 20260506205812 | 74 | 321 | 0.0 | 2.0 | 0.00 | 0.06 | 0.06 | 76 | 1007.9 |
| 20260506205726 | 73 | 319 | 0.0 | 2.0 | 0.00 | 0.06 | 0.06 | 75 | 1007.9 |
| 20260506205632 | 73 | 276 | 0.0 | 2.0 | 0.00 | 0.06 | 0.06 | 75 | 1007.9 |
| 20260506205537 | 73 | 285 | 0.0 | 2.0 | 0.00 | 0.06 | 0.06 | 75 | 1007.9 |
| 20260506205429 | 73 | 265 | 0.0 | 5.0 | 0.00 | 0.06 | 0.06 | 76 | 1007.9 |
| 20260506205315 | 73 | 267 | 0.0 | 5.0 | 0.00 | 0.06 | 0.06 | 77 | 1007.9 |
| 20260506205222 | 73 | 227 | 0.0 | 5.0 | 0.00 | 0.06 | 0.06 | 76 | 1007.9 |
| 20260506205127 | 73 | 224 | 0.0 | 5.0 | 0.00 | 0.06 | 0.06 | 76 | 1007.9 |
| 20260506205013 | 73 | 40 | 0.0 | 5.0 | 0.00 | 0.06 | 0.06 | 76 | 1007.9 |
| 20260506204926 | 73 | 65 | 0.0 | 5.0 | 0.00 | 0.06 | 0.06 | 76 | 1007.9 |
| 20260506204814 | 73 | 86 | 0.0 | 5.0 | 0.00 | 0.06 | 0.06 | 76 | 1007.9 |
| 20260506204719 | 73 | 111 | 1.0 | 5.0 | 0.00 | 0.06 | 0.06 | 76 | 1007.9 |
| 20260506204625 | 73 | 157 | 1.0 | 5.0 | 0.00 | 0.06 | 0.06 | 75 | 1007.9 |
| 20260506204542 | 72 | 78 | 0.0 | 5.0 | 0.00 | 0.06 | 0.06 | 75 | 1007.3 |
| 20260506204511 | 73 | 335 | 0.0 | 3.0 | 0.00 | 0.06 | 0.06 | 75 | 1007.8 |
| 20260506204417 | 73 | 287 | 0.0 | 3.0 | 0.00 | 0.06 | 0.06 | 76 | 1007.8 |
| 20260506204330 | 73 | 292 | 0.0 | 3.0 | 0.00 | 0.06 | 0.06 | 76 | 1007.8 |
| 20260506204236 | 73 | 29 | 0.0 | 3.0 | 0.00 | 0.06 | 0.06 | 76 | 1007.7 |
| 20260506204125 | 73 | 257 | 0.0 | 3.0 | 0.00 | 0.06 | 0.06 | 76 | 1007.7 |
| 20260506204011 | 73 | 321 | 0.0 | 3.0 | 0.00 | 0.06 | 0.06 | 75 | 1007.8 |
| 20260506203924 | 73 | 321 | 0.0 | 3.0 | 0.00 | 0.06 | 0.06 | 75 | 1007.8 |
| 20260506203830 | 73 | 309 | 0.0 | 2.0 | 0.00 | 0.06 | 0.06 | 75 | 1007.8 |
| 20260506203716 | 73 | 31 | 0.0 | 2.0 | 0.00 | 0.06 | 0.06 | 75 | 1007.8 |
| 20260506203622 | 73 | 360 | 0.0 | 2.0 | 0.00 | 0.06 | 0.06 | 76 | 1007.8 |
| 20260506203512 | 73 | 201 | 0.0 | 6.0 | 0.00 | 0.06 | 0.06 | 76 | 1007.7 |
| 20260506203418 | 73 | 36 | 0.0 | 6.0 | 0.00 | 0.06 | 0.06 | 75 | 1007.8 |
| 20260506203331 | 73 | 95 | 0.0 | 6.0 | 0.00 | 0.06 | 0.06 | 76 | 1007.8 |
| 20260506203217 | 73 | 78 | 0.0 | 6.0 | 0.00 | 0.06 | 0.06 | 76 | 1007.8 |
| 20260506203122 | 73 | 288 | 0.0 | 6.0 | 0.00 | 0.06 | 0.06 | 76 | 1007.8 |
| 20260506203056 | 72 | 336 | 0.0 | 6.0 | 0.00 | 0.06 | 0.06 | 76 | 1007.3 |
| 20260506203013 | 73 | 18 | 0.0 | 6.0 | 0.00 | 0.06 | 0.06 | 76 | 1007.8 |
| 20260506202919 | 73 | 30 | 0.0 | 6.0 | 0.00 | 0.06 | 0.06 | 76 | 1007.8 |
| 20260506202825 | 73 | 25 | 0.0 | 6.0 | 0.00 | 0.06 | 0.06 | 76 | 1007.7 |
| 20260506202711 | 73 | 53 | 0.0 | 6.0 | 0.00 | 0.06 | 0.06 | 76 | 1007.8 |
| 20260506202623 | 73 | 71 | 0.0 | 0.0 | 0.00 | 0.06 | 0.06 | 76 | 1007.8 |
| 20260506202514 | 73 | 61 | 0.0 | 1.0 | 0.00 | 0.06 | 0.06 | 76 | 1007.7 |
| 20260506202439 | 73 | 69 | 0.0 | 1.0 | 0.00 | 0.06 | 0.06 | 77 | 1007.7 |
| 20260506202332 | 73 | 18 | 0.0 | 1.0 | 0.00 | 0.06 | 0.06 | 76 | 1007.7 |
| 20260506202217 | 73 | 225 | 0.0 | 1.0 | 0.00 | 0.06 | 0.06 | 76 | 1007.7 |
| 20260506202143 | 73 | 355 | 0.0 | 1.0 | 0.00 | 0.06 | 0.06 | 76 | 1007.7 |
| 20260506202028 | 73 | 355 | 0.0 | 1.0 | 0.00 | 0.06 | 0.06 | 76 | 1007.8 |
| 20260506201914 | 73 | 138 | 0.0 | 1.0 | 0.01 | 0.06 | 0.06 | 76 | 1007.8 |
| 20260506201831 | 73 | 28 | 0.0 | 1.0 | 0.01 | 0.06 | 0.06 | 77 | 1007.8 |
| 20260506201718 | 73 | 49 | 0.0 | 1.0 | 0.01 | 0.06 | 0.06 | 76 | 1007.8 |
| 20260506201623 | 72 | 17 | 0.0 | 1.0 | 0.01 | 0.06 | 0.06 | 78 | 1007.8 |
| 20260506201550 | 72 | 307 | 0.0 | 1.0 | 0.01 | 0.06 | 0.06 | 77 | 1007.3 |
| 20260506201509 | 72 | 20 | 0.0 | 1.0 | 0.01 | 0.06 | 0.06 | 76 | 1007.8 |
| 20260506201415 | 72 | 31 | 0.0 | 1.0 | 0.01 | 0.06 | 0.06 | 77 | 1007.8 |
| 20260506201332 | 72 | 331 | 0.0 | 1.0 | 0.01 | 0.06 | 0.06 | 77 | 1007.8 |
| 20260506201238 | 72 | 300 | 0.0 | 1.0 | 0.01 | 0.06 | 0.06 | 78 | 1007.8 |
| 20260506201123 | 72 | 333 | 0.0 | 1.0 | 0.01 | 0.06 | 0.06 | 77 | 1007.8 |
| 20260506201009 | 72 | 5 | 0.0 | 7.0 | 0.01 | 0.06 | 0.06 | 77 | 1007.8 |
| 20260506200915 | 72 | 274 | 0.0 | 7.0 | 0.01 | 0.06 | 0.06 | 77 | 1007.8 |
| 20260506200828 | 72 | 78 | 0.0 | 7.0 | 0.01 | 0.06 | 0.06 | 79 | 1007.8 |
| 20260506200718 | 72 | 80 | 0.0 | 7.0 | 0.01 | 0.06 | 0.06 | 77 | 1007.8 |
| 20260506200624 | 72 | 97 | 0.0 | 7.0 | 0.01 | 0.06 | 0.06 | 78 | 1007.8 |
| 20260506200510 | 72 | 38 | 0.0 | 7.0 | 0.01 | 0.06 | 0.06 | 78 | 1007.8 |
| 20260506200416 | 72 | 44 | 0.0 | 7.0 | 0.01 | 0.06 | 0.06 | 78 | 1007.8 |
| 20260506200349 | 72 | 286 | 1.0 | 7.0 | 0.01 | 0.06 | 0.06 | 77 | 1007.8 |
| 20260506200214 | 72 | 177 | 2.0 | 7.0 | 0.01 | 0.06 | 0.06 | 77 | 1007.8 |
| 20260506200124 | 72 | 273 | 1.0 | 5.0 | 0.01 | 0.06 | 0.06 | 78 | 1007.8 |
| 20260506200044 | 71 | 315 | 0.0 | 6.0 | 0.01 | 0.06 | 0.06 | 78 | 1007.3 |
| 20260506200010 | 72 | 81 | 0.0 | 6.0 | 0.01 | 0.06 | 0.06 | 78 | 1007.8 |
| 20260506195916 | 72 | 16 | 0.0 | 6.0 | 0.01 | 0.06 | 0.06 | 77 | 1007.8 |
| 20260506195829 | 72 | 255 | 0.0 | 7.0 | 0.01 | 0.06 | 0.06 | 78 | 1007.8 |
| 20260506195715 | 72 | 148 | 0.0 | 7.0 | 0.01 | 0.06 | 0.06 | 79 | 1007.8 |
| 20260506195641 | 72 | 78 | 0.0 | 7.0 | 0.01 | 0.06 | 0.06 | 78 | 1007.8 |
| 20260506195510 | 72 | 51 | 1.0 | 7.0 | 0.01 | 0.06 | 0.06 | 77 | 1007.8 |
| 20260506195424 | 72 | 323 | 1.0 | 7.0 | 0.01 | 0.06 | 0.06 | 77 | 1007.8 |
| 20260506195329 | 72 | 64 | 1.0 | 7.0 | 0.01 | 0.06 | 0.06 | 77 | 1008.1 |
| 20260506195215 | 72 | 306 | 0.0 | 7.0 | 0.01 | 0.06 | 0.06 | 77 | 1008.0 |
| 20260506195122 | 72 | 311 | 1.0 | 7.0 | 0.01 | 0.06 | 0.06 | 77 | 1008.0 |
| 20260506195012 | 71 | 5 | 1.0 | 7.0 | 0.01 | 0.06 | 0.06 | 78 | 1008.1 |
| 20260506194918 | 71 | 64 | 0.0 | 6.0 | 0.01 | 0.06 | 0.06 | 78 | 1008.1 |
| 20260506194831 | 71 | 57 | 0.0 | 6.0 | 0.01 | 0.06 | 0.06 | 79 | 1008.0 |
| 20260506194717 | 71 | 312 | 0.0 | 6.0 | 0.01 | 0.06 | 0.06 | 78 | 1007.9 |
| 20260506194623 | 71 | 9 | 0.0 | 6.0 | 0.01 | 0.06 | 0.06 | 78 | 1007.9 |
| 20260506194559 | 71 | 21 | 0.0 | 6.0 | 0.01 | 0.06 | 0.06 | 78 | 1007.5 |
| 20260506194513 | 71 | 93 | 0.0 | 0.0 | 0.01 | 0.06 | 0.06 | 78 | 1008.0 |
| 20260506194419 | 71 | 56 | 0.0 | 0.0 | 0.01 | 0.06 | 0.06 | 79 | 1008.0 |
| 20260506194325 | 71 | 13 | 0.0 | 0.0 | 0.01 | 0.06 | 0.06 | 78 | 1007.9 |
| 20260506194211 | 71 | 34 | 0.0 | 0.0 | 0.01 | 0.06 | 0.06 | 78 | 1007.9 |
| 20260506194124 | 71 | 329 | 0.0 | 0.0 | 0.01 | 0.06 | 0.06 | 78 | 1007.9 |
| 20260506194010 | 71 | 57 | 0.0 | 0.0 | 0.01 | 0.06 | 0.06 | 78 | 1008.0 |
| 20260506193920 | 71 | 235 | 0.0 | 0.0 | 0.01 | 0.06 | 0.06 | 78 | 1008.0 |
| 20260506193826 | 71 | 91 | 0.0 | 0.0 | 0.01 | 0.06 | 0.06 | 80 | 1008.0 |
| 20260506193712 | 71 | 38 | 0.0 | 0.0 | 0.01 | 0.06 | 0.06 | 79 | 1008.2 |
| 20260506193618 | 71 | 276 | 0.0 | 0.0 | 0.01 | 0.06 | 0.06 | 79 | 1008.2 |
| 20260506193531 | 71 | 30 | 0.0 | 0.0 | 0.01 | 0.06 | 0.06 | 79 | 1008.1 |
| 20260506193416 | 71 | 66 | 0.0 | 0.0 | 0.01 | 0.06 | 0.06 | 79 | 1008.1 |
| 20260506193326 | 71 | 62 | 0.0 | 0.0 | 0.01 | 0.06 | 0.06 | 79 | 1008.1 |
| 20260506193212 | 71 | 325 | 0.0 | 0.0 | 0.01 | 0.06 | 0.06 | 79 | 1008.2 |
| 20260506193145 | 71 | 323 | 0.0 | 0.0 | 0.01 | 0.06 | 0.06 | 79 | 1008.2 |
| 20260506193052 | 70 | 24 | 0.0 | 0.0 | 0.01 | 0.06 | 0.06 | 80 | 1007.6 |
| 20260506193010 | 71 | 322 | 0.0 | 0.0 | 0.01 | 0.06 | 0.06 | 80 | 1008.0 |
| 20260506192916 | 71 | 26 | 0.0 | 0.0 | 0.01 | 0.06 | 0.06 | 79 | 1008.0 |
| 20260506192822 | 71 | 348 | 0.0 | 0.0 | 0.01 | 0.06 | 0.06 | 80 | 1008.0 |
| 20260506192712 | 71 | 360 | 0.0 | 0.0 | 0.01 | 0.06 | 0.06 | 79 | 1008.0 |
| 20260506192625 | 71 | 26 | 0.0 | 0.0 | 0.01 | 0.06 | 0.06 | 79 | 1008.0 |
| 20260506192510 | 71 | 49 | 0.0 | 0.0 | 0.01 | 0.06 | 0.06 | 80 | 1008.0 |
| 20260506192416 | 71 | 81 | 0.0 | 0.0 | 0.01 | 0.06 | 0.06 | 79 | 1008.0 |
| 20260506192322 | 71 | 76 | 0.0 | 0.0 | 0.01 | 0.06 | 0.06 | 80 | 1008.0 |
| 20260506192212 | 71 | 98 | 0.0 | 0.0 | 0.01 | 0.06 | 0.06 | 80 | 1008.0 |
| 20260506192125 | 70 | 304 | 0.0 | 0.0 | 0.01 | 0.06 | 0.06 | 80 | 1008.0 |
| 20260506192031 | 70 | 22 | 0.0 | 0.0 | 0.01 | 0.06 | 0.06 | 81 | 1008.0 |
| 20260506191917 | 70 | 302 | 0.0 | 0.0 | 0.00 | 0.05 | 0.05 | 80 | 1008.1 |
| 20260506191823 | 70 | 62 | 0.0 | 0.0 | 0.00 | 0.05 | 0.05 | 82 | 1008.1 |
| 20260506191713 | 70 | 300 | 0.0 | 0.0 | 0.00 | 0.05 | 0.05 | 82 | 1008.2 |
| 20260506191619 | 70 | 294 | 0.0 | 1.0 | 0.00 | 0.05 | 0.05 | 82 | 1008.2 |
| 20260506191532 | 70 | 360 | 0.0 | 1.0 | 0.00 | 0.05 | 0.05 | 81 | 1008.3 |
| 20260506191517 | 69 | 15 | 0.0 | 1.0 | 0.00 | 0.05 | 0.05 | 81 | 1007.9 |
| 20260506191418 | 70 | 26 | 0.0 | 1.0 | 0.00 | 0.05 | 0.05 | 82 | 1008.4 |
| 20260506191345 | 69 | 332 | 0.0 | 1.0 | 0.00 | 0.05 | 0.05 | 81 | 1008.4 |
| 20260506191209 | 69 | 215 | 0.0 | 1.0 | 0.00 | 0.05 | 0.05 | 82 | 1008.3 |
| 20260506191126 | 69 | 23 | 0.0 | 1.0 | 0.00 | 0.05 | 0.05 | 82 | 1008.3 |
| 20260506191032 | 69 | 13 | 0.0 | 1.0 | 0.00 | 0.05 | 0.05 | 83 | 1008.2 |
| 20260506190937 | 69 | 307 | 0.0 | 1.0 | 0.00 | 0.05 | 0.05 | 82 | 1008.2 |
| 20260506190829 | 69 | 308 | 0.0 | 1.0 | 0.00 | 0.05 | 0.05 | 82 | 1008.2 |
| 20260506190715 | 69 | 5 | 0.0 | 1.0 | 0.00 | 0.05 | 0.05 | 81 | 1008.2 |
| 20260506190621 | 69 | 40 | 0.0 | 1.0 | 0.00 | 0.05 | 0.05 | 82 | 1008.2 |
| 20260506190511 | 69 | 17 | 0.0 | 1.0 | 0.00 | 0.05 | 0.05 | 82 | 1008.2 |
| 20260506190417 | 69 | 355 | 0.0 | 1.0 | 0.00 | 0.05 | 0.05 | 82 | 1008.3 |
| 20260506190330 | 69 | 71 | 0.0 | 1.0 | 0.00 | 0.05 | 0.05 | 82 | 1008.3 |
| 20260506190217 | 69 | 69 | 0.0 | 1.0 | 0.00 | 0.05 | 0.05 | 82 | 1008.4 |
| 20260506190122 | 68 | 97 | 0.0 | 1.0 | 0.00 | 0.05 | 0.05 | 82 | 1008.4 |
| 20260506190100 | 68 | 32 | 0.0 | 1.0 | 0.00 | 0.05 | 0.05 | 82 | 1008.0 |
| 20260506190026 | 68 | 136 | 0.0 | 1.0 | 0.00 | 0.05 | 0.05 | 82 | 1008.5 |
| 20260506185921 | 68 | 274 | 0.0 | 1.0 | 0.00 | 0.05 | 0.05 | 83 | 1008.5 |
| 20260506185831 | 68 | 330 | 0.0 | 1.0 | 0.00 | 0.05 | 0.05 | 83 | 1008.5 |
| 20260506185717 | 68 | 297 | 0.0 | 1.0 | 0.00 | 0.05 | 0.05 | 83 | 1008.5 |
| 20260506185643 | 68 | 279 | 0.0 | 1.0 | 0.00 | 0.05 | 0.05 | 83 | 1008.5 |
| 20260506185535 | 68 | 39 | 0.0 | 1.0 | 0.00 | 0.05 | 0.05 | 83 | 1008.5 |
| 20260506185420 | 68 | 55 | 0.0 | 0.0 | 0.00 | 0.05 | 0.05 | 83 | 1008.5 |
| 20260506185310 | 68 | 20 | 0.0 | 0.0 | 0.00 | 0.05 | 0.05 | 83 | 1008.6 |
| 20260506185216 | 68 | 5 | 0.0 | 0.0 | 0.00 | 0.05 | 0.05 | 82 | 1008.6 |
| 20260506185130 | 68 | 360 | 0.0 | 0.0 | 0.00 | 0.05 | 0.05 | 83 | 1008.6 |
| 20260506185035 | 68 | 99 | 0.0 | 0.0 | 0.00 | 0.05 | 0.05 | 83 | 1008.7 |
| 20260506184921 | 68 | 38 | 0.0 | 0.0 | 0.00 | 0.05 | 0.05 | 83 | 1008.7 |
| 20260506184827 | 68 | 5 | 0.0 | 0.0 | 0.00 | 0.05 | 0.05 | 83 | 1008.7 |
| 20260506184737 | 68 | 21 | 0.0 | 0.0 | 0.00 | 0.05 | 0.05 | 83 | 1008.6 |
| 20260506184629 | 68 | 13 | 0.0 | 0.0 | 0.00 | 0.05 | 0.05 | 83 | 1008.6 |
| 20260506184514 | 68 | 57 | 0.0 | 0.0 | 0.00 | 0.05 | 0.05 | 83 | 1008.5 |
| 20260506184506 | 67 | 57 | 0.0 | 0.0 | 0.00 | 0.05 | 0.05 | 83 | 1008.0 |
| 20260506184420 | 68 | 57 | 0.0 | 0.0 | 0.00 | 0.05 | 0.05 | 83 | 1008.5 |
| 20260506184325 | 68 | 71 | 0.0 | 0.0 | 0.00 | 0.05 | 0.05 | 82 | 1008.5 |
| 20260506184212 | 68 | 5 | 0.0 | 0.0 | 0.00 | 0.05 | 0.05 | 82 | 1008.6 |
| 20260506184122 | 68 | 22 | 0.0 | 0.0 | 0.00 | 0.05 | 0.05 | 82 | 1008.6 |
| 20260506184034 | 68 | 331 | 0.0 | 0.0 | 0.00 | 0.05 | 0.05 | 82 | 1008.7 |
| 20260506183921 | 68 | 49 | 0.0 | 1.0 | 0.00 | 0.05 | 0.05 | 83 | 1008.9 |
| 20260506183826 | 68 | 30 | 0.0 | 1.0 | 0.00 | 0.05 | 0.05 | 82 | 1008.9 |
| 20260506183733 | 68 | 43 | 0.0 | 1.0 | 0.00 | 0.05 | 0.05 | 82 | 1008.9 |
| 20260506183624 | 68 | 5 | 0.0 | 1.0 | 0.00 | 0.05 | 0.05 | 82 | 1008.9 |
| 20260506183514 | 68 | 35 | 0.0 | 1.0 | 0.00 | 0.05 | 0.05 | 82 | 1008.7 |
| 20260506183420 | 68 | 311 | 0.0 | 1.0 | 0.00 | 0.05 | 0.05 | 82 | 1008.7 |
| 20260506183326 | 68 | 40 | 0.0 | 1.0 | 0.00 | 0.05 | 0.05 | 82 | 1008.6 |
| 20260506183214 | 68 | 73 | 0.0 | 1.0 | 0.00 | 0.05 | 0.05 | 82 | 1008.6 |
| 20260506183119 | 68 | 46 | 0.0 | 1.0 | 0.00 | 0.05 | 0.05 | 83 | 1008.6 |
| 20260506183026 | 67 | 60 | 0.0 | 1.0 | 0.00 | 0.05 | 0.05 | 82 | 1008.2 |
| 20260506183009 | 68 | 66 | 0.0 | 1.0 | 0.00 | 0.05 | 0.05 | 82 | 1008.6 |
| 20260506182942 | 68 | 66 | 0.0 | 1.0 | 0.00 | 0.05 | 0.05 | 82 | 1008.6 |
| 20260506182827 | 68 | 88 | 0.0 | 1.0 | 0.00 | 0.05 | 0.05 | 82 | 1008.6 |
| 20260506182740 | 68 | 55 | 0.0 | 1.0 | 0.00 | 0.05 | 0.05 | 82 | 1008.6 |
| 20260506182645 | 68 | 70 | 0.0 | 1.0 | 0.00 | 0.05 | 0.05 | 81 | 1008.8 |
| 20260506182510 | 68 | 360 | 0.0 | 1.0 | 0.00 | 0.05 | 0.05 | 81 | 1008.9 |
| 20260506182416 | 68 | 319 | 0.0 | 1.0 | 0.00 | 0.05 | 0.05 | 81 | 1008.8 |
| 20260506182333 | 68 | 318 | 0.0 | 1.0 | 0.00 | 0.05 | 0.05 | 81 | 1008.8 |
| 20260506182219 | 68 | 344 | 0.0 | 0.0 | 0.00 | 0.05 | 0.05 | 81 | 1008.8 |
| 20260506182125 | 68 | 89 | 0.0 | 0.0 | 0.00 | 0.05 | 0.05 | 82 | 1008.7 |
| 20260506182011 | 68 | 84 | 0.0 | 0.0 | 0.00 | 0.05 | 0.05 | 81 | 1009.0 |
| 20260506181918 | 68 | 355 | 0.0 | 0.0 | 0.00 | 0.05 | 0.05 | 81 | 1009.0 |
| 20260506181834 | 68 | 74 | 0.0 | 0.0 | 0.00 | 0.05 | 0.05 | 81 | 1009.0 |
| 20260506181720 | 68 | 84 | 0.0 | 0.0 | 0.00 | 0.05 | 0.05 | 81 | 1008.8 |
| 20260506181626 | 68 | 71 | 0.0 | 0.0 | 0.00 | 0.05 | 0.05 | 81 | 1008.7 |
| 20260506181600 | 68 | 81 | 0.0 | 0.0 | 0.00 | 0.05 | 0.05 | 81 | 1008.2 |
| 20260506181509 | 68 | 50 | 0.0 | 0.0 | 0.00 | 0.05 | 0.05 | 81 | 1008.9 |
| 20260506181415 | 68 | 103 | 0.0 | 0.0 | 0.00 | 0.05 | 0.05 | 81 | 1009.0 |
| 20260506181321 | 68 | 21 | 0.0 | 0.0 | 0.00 | 0.05 | 0.05 | 81 | 1009.0 |
| 20260506181211 | 69 | 73 | 0.0 | 0.0 | 0.00 | 0.05 | 0.05 | 80 | 1008.8 |
| 20260506181124 | 69 | 341 | 0.0 | 0.0 | 0.00 | 0.05 | 0.05 | 81 | 1008.8 |
| 20260506181010 | 69 | 24 | 0.0 | 0.0 | 0.00 | 0.05 | 0.05 | 81 | 1008.6 |
| 20260506180916 | 69 | 61 | 0.0 | 0.0 | 0.00 | 0.05 | 0.05 | 81 | 1008.7 |
| 20260506180849 | 69 | 34 | 0.0 | 0.0 | 0.00 | 0.05 | 0.05 | 81 | 1008.7 |
| 20260506180718 | 69 | 46 | 0.0 | 0.0 | 0.00 | 0.05 | 0.05 | 81 | 1008.8 |
| 20260506180624 | 69 | 68 | 0.0 | 0.0 | 0.00 | 0.05 | 0.05 | 81 | 1008.8 |
| 20260506180510 | 69 | 292 | 0.0 | 0.0 | 0.00 | 0.05 | 0.05 | 81 | 1008.9 |
| 20260506180416 | 69 | 15 | 0.0 | 0.0 | 0.00 | 0.05 | 0.05 | 80 | 1008.8 |
| 20260506180322 | 69 | 25 | 0.0 | 0.0 | 0.00 | 0.05 | 0.05 | 80 | 1008.8 |
| 20260506180235 | 69 | 78 | 0.0 | 0.0 | 0.00 | 0.05 | 0.05 | 81 | 1008.7 |
| 20260506180124 | 69 | 56 | 0.0 | 0.0 | 0.00 | 0.05 | 0.05 | 81 | 1008.7 |
| 20260506180051 | 69 | 33 | 0.0 | 0.0 | 0.00 | 0.05 | 0.05 | 80 | 1008.2 |
| 20260506180010 | 69 | 31 | 0.0 | 0.0 | 0.00 | 0.05 | 0.05 | 81 | 1008.9 |
| 20260506175916 | 69 | 46 | 0.0 | 0.0 | 0.00 | 0.05 | 0.05 | 81 | 1008.9 |
| 20260506175822 | 69 | 54 | 0.0 | 0.0 | 0.00 | 0.05 | 0.05 | 80 | 1008.9 |
| 20260506175735 | 69 | 53 | 0.0 | 0.0 | 0.00 | 0.05 | 0.05 | 80 | 1008.8 |
| 20260506175620 | 69 | 95 | 0.0 | 0.0 | 0.00 | 0.05 | 0.05 | 79 | 1008.8 |
| 20260506175511 | 69 | 97 | 0.0 | 0.0 | 0.00 | 0.05 | 0.05 | 80 | 1008.9 |
| 20260506175418 | 70 | 334 | 0.0 | 0.0 | 0.00 | 0.05 | 0.05 | 79 | 1008.9 |
| 20260506175351 | 70 | 97 | 0.0 | 0.0 | 0.00 | 0.05 | 0.05 | 79 | 1008.8 |
| 20260506175216 | 70 | 89 | 0.0 | 0.0 | 0.00 | 0.05 | 0.05 | 79 | 1009.0 |
| 20260506175122 | 70 | 12 | 0.0 | 0.0 | 0.00 | 0.05 | 0.05 | 79 | 1009.0 |
| 20260506175011 | 70 | 79 | 0.0 | 0.0 | 0.00 | 0.05 | 0.05 | 79 | 1009.0 |
| 20260506174918 | 70 | 44 | 0.0 | 0.0 | 0.00 | 0.05 | 0.05 | 79 | 1009.0 |
| 20260506174851 | 70 | 346 | 0.0 | 0.0 | 0.00 | 0.05 | 0.05 | 79 | 1009.0 |
| 20260506174715 | 70 | 32 | 0.0 | 0.0 | 0.00 | 0.05 | 0.05 | 79 | 1009.0 |
| 20260506174618 | 70 | 246 | 0.0 | 0.0 | 0.00 | 0.05 | 0.05 | 79 | 1009.0 |
| 20260506174554 | 69 | 69 | 0.0 | 0.0 | 0.00 | 0.05 | 0.05 | 79 | 1008.5 |
| 20260506174524 | 70 | 58 | 0.0 | 0.0 | 0.00 | 0.05 | 0.05 | 79 | 1009.0 |
| 20260506174416 | 70 | 223 | 0.0 | 0.0 | 0.00 | 0.05 | 0.05 | 79 | 1009.1 |
| 20260506174328 | 70 | 207 | 0.0 | 0.0 | 0.00 | 0.05 | 0.05 | 79 | 1009.1 |
| 20260506174215 | 70 | 10 | 0.0 | 0.0 | 0.00 | 0.05 | 0.05 | 81 | 1009.0 |
| 20260506174140 | 70 | 88 | 0.0 | 0.0 | 0.00 | 0.05 | 0.05 | 80 | 1009.0 |
| 20260506174034 | 70 | 5 | 0.0 | 0.0 | 0.00 | 0.05 | 0.05 | 79 | 1008.9 |
| 20260506173911 | 70 | 297 | 0.0 | 0.0 | 0.00 | 0.05 | 0.05 | 80 | 1008.9 |
| 20260506173828 | 70 | 63 | 0.0 | 0.0 | 0.00 | 0.05 | 0.05 | 80 | 1008.9 |
| 20260506173511 | 70 | 348 | 0.0 | 0.0 | 0.00 | 0.05 | 0.05 | 80 | 1009.0 |
| 20260506173417 | 70 | 17 | 0.0 | 0.0 | 0.00 | 0.05 | 0.05 | 80 | 1008.9 |
| 20260506173350 | 70 | 79 | 0.0 | 0.0 | 0.00 | 0.05 | 0.05 | 80 | 1008.9 |
| 20260506173215 | 70 | 67 | 0.0 | 0.0 | 0.00 | 0.05 | 0.05 | 80 | 1008.9 |
| 20260506173126 | 69 | 52 | 0.0 | 0.0 | 0.00 | 0.05 | 0.05 | 81 | 1008.4 |
| 20260506173011 | 70 | 52 | 0.0 | 0.0 | 0.00 | 0.05 | 0.05 | 80 | 1008.9 |
| 20260506172917 | 70 | 54 | 0.0 | 0.0 | 0.00 | 0.05 | 0.05 | 80 | 1009.0 |
| 20260506172823 | 70 | 76 | 0.0 | 0.0 | 0.00 | 0.05 | 0.05 | 80 | 1009.0 |
| 20260506172709 | 69 | 57 | 0.0 | 0.0 | 0.00 | 0.05 | 0.05 | 82 | 1008.9 |
| 20260506172642 | 69 | 31 | 0.0 | 0.0 | 0.00 | 0.05 | 0.05 | 80 | 1008.9 |
| 20260506172531 | 69 | 18 | 0.0 | 0.0 | 0.00 | 0.05 | 0.05 | 80 | 1008.8 |
| 20260506172443 | 69 | 86 | 0.0 | 0.0 | 0.00 | 0.05 | 0.05 | 81 | 1008.8 |
| 20260506172355 | 69 | 64 | 0.0 | 0.0 | 0.00 | 0.05 | 0.05 | 81 | 1008.8 |
| 20260506172219 | 69 | 69 | 0.0 | 0.0 | 0.00 | 0.05 | 0.05 | 81 | 1008.9 |
| 20260506172125 | 69 | 29 | 0.0 | 0.0 | 0.00 | 0.05 | 0.05 | 81 | 1008.9 |
| 20260506172011 | 69 | 24 | 0.0 | 0.0 | 0.00 | 0.05 | 0.05 | 81 | 1008.8 |
| 20260506171917 | 69 | 19 | 0.0 | 0.0 | 0.00 | 0.05 | 0.05 | 80 | 1008.8 |
| 20260506171834 | 69 | 19 | 0.0 | 0.0 | 0.00 | 0.05 | 0.05 | 81 | 1008.8 |
| 20260506171740 | 69 | 19 | 0.0 | 0.0 | 0.00 | 0.05 | 0.05 | 82 | 1008.8 |
| 20260506171639 | 69 | 325 | 0.0 | 0.0 | 0.00 | 0.05 | 0.05 | 81 | 1008.2 |
| 20260506171625 | 69 | 325 | 0.0 | 0.0 | 0.00 | 0.05 | 0.05 | 81 | 1008.8 |
| 20260506171538 | 69 | 308 | 0.0 | 0.0 | 0.00 | 0.05 | 0.05 | 80 | 1008.8 |
| 20260506171443 | 69 | 5 | 0.0 | 0.0 | 0.00 | 0.05 | 0.05 | 81 | 1008.8 |
| 20260506171335 | 69 | 25 | 0.0 | 0.0 | 0.00 | 0.05 | 0.05 | 81 | 1008.9 |
| 20260506171225 | 69 | 342 | 0.0 | 0.0 | 0.00 | 0.05 | 0.05 | 82 | 1008.9 |
| 20260506171111 | 69 | 342 | 0.0 | 0.0 | 0.00 | 0.05 | 0.05 | 81 | 1008.8 |
| 20260506171017 | 69 | 34 | 0.0 | 0.0 | 0.00 | 0.05 | 0.05 | 81 | 1008.7 |
| 20260506170950 | 69 | 207 | 0.0 | 0.0 | 0.00 | 0.05 | 0.05 | 81 | 1008.7 |
| 20260506170835 | 69 | 261 | 0.0 | 0.0 | 0.00 | 0.05 | 0.05 | 81 | 1009.0 |
| 20260506170740 | 69 | 219 | 0.0 | 0.0 | 0.00 | 0.05 | 0.05 | 80 | 1009.0 |
| 20260506170631 | 69 | 298 | 0.0 | 0.0 | 0.00 | 0.05 | 0.05 | 82 | 1009.2 |
| 20260506170541 | 69 | 105 | 0.0 | 0.0 | 0.00 | 0.05 | 0.05 | 81 | 1009.2 |
| 20260506170453 | 69 | 70 | 0.0 | 0.0 | 0.00 | 0.05 | 0.05 | 81 | 1009.2 |
| 20260506170318 | 69 | 22 | 0.0 | 0.0 | 0.00 | 0.05 | 0.05 | 81 | 1009.2 |
| 20260506170224 | 69 | 92 | 0.0 | 0.0 | 0.00 | 0.05 | 0.05 | 82 | 1009.3 |
| 20260506170130 | 69 | 355 | 0.0 | 0.0 | 0.00 | 0.05 | 0.05 | 81 | 1009.3 |
| 20260506170022 | 69 | 317 | 0.0 | 0.0 | 0.00 | 0.05 | 0.05 | 81 | 1009.3 |
| 20260506170011 | 68 | 345 | 0.0 | 0.0 | 0.00 | 0.05 | 0.05 | 81 | 1008.6 |
| 20260506165911 | 69 | 74 | 0.0 | 0.0 | 0.00 | 0.05 | 0.05 | 80 | 1009.1 |
| 20260506165837 | 68 | 40 | 0.0 | 0.0 | 0.00 | 0.05 | 0.05 | 82 | 1009.1 |
| 20260506165730 | 68 | 308 | 0.0 | 0.0 | 0.00 | 0.05 | 0.05 | 82 | 1009.1 |
| 20260506165635 | 68 | 60 | 0.0 | 0.0 | 0.00 | 0.05 | 0.05 | 83 | 1009.1 |
| 20260506165521 | 68 | 50 | 0.0 | 0.0 | 0.00 | 0.05 | 0.05 | 82 | 1009.1 |
| 20260506165427 | 68 | 78 | 0.0 | 0.0 | 0.00 | 0.05 | 0.05 | 82 | 1009.2 |
| 20260506165317 | 68 | 327 | 0.0 | 0.0 | 0.00 | 0.05 | 0.05 | 82 | 1009.1 |
| 20260506165223 | 68 | 321 | 0.0 | 0.0 | 0.00 | 0.05 | 0.05 | 82 | 1009.1 |
| 20260506165109 | 68 | 27 | 0.0 | 0.0 | 0.00 | 0.05 | 0.05 | 82 | 1009.1 |
| 20260506165022 | 68 | 34 | 0.0 | 0.0 | 0.00 | 0.05 | 0.05 | 82 | 1009.1 |
| 20260506164948 | 68 | 299 | 0.0 | 0.0 | 0.00 | 0.05 | 0.05 | 82 | 1009.1 |
| 20260506164809 | 68 | 330 | 0.0 | 0.0 | 0.00 | 0.05 | 0.05 | 82 | 1009.2 |
| 20260506164743 | 68 | 306 | 0.0 | 0.0 | 0.00 | 0.05 | 0.05 | 81 | 1009.2 |
| 20260506164630 | 68 | 304 | 0.0 | 0.0 | 0.00 | 0.05 | 0.05 | 82 | 1009.1 |
| 20260506164546 | 67 | 277 | 0.0 | 0.0 | 0.00 | 0.05 | 0.05 | 82 | 1008.6 |
| 20260506164425 | 68 | 347 | 0.0 | 0.0 | 0.00 | 0.05 | 0.05 | 82 | 1009.1 |
| 20260506164311 | 68 | 10 | 0.0 | 0.0 | 0.00 | 0.05 | 0.05 | 82 | 1009.0 |
| 20260506164218 | 68 | 42 | 0.0 | 0.0 | 0.00 | 0.05 | 0.05 | 82 | 1009.0 |
| 20260506164123 | 68 | 77 | 0.0 | 0.0 | 0.00 | 0.05 | 0.05 | 82 | 1009.0 |
| 20260506164013 | 68 | 275 | 0.0 | 0.0 | 0.00 | 0.05 | 0.05 | 84 | 1009.1 |
| 20260506163946 | 68 | 178 | 0.0 | 0.0 | 0.00 | 0.05 | 0.05 | 84 | 1009.1 |
| 20260506163811 | 67 | 32 | 0.0 | 0.0 | 0.00 | 0.05 | 0.05 | 84 | 1009.3 |
| 20260506163717 | 67 | 117 | 0.0 | 0.0 | 0.00 | 0.05 | 0.05 | 84 | 1009.4 |
| 20260506163623 | 67 | 104 | 0.0 | 0.0 | 0.00 | 0.05 | 0.05 | 83 | 1009.4 |
| 20260506163513 | 67 | 94 | 0.0 | 0.0 | 0.00 | 0.05 | 0.05 | 83 | 1009.2 |
| 20260506163426 | 67 | 342 | 0.0 | 0.0 | 0.00 | 0.05 | 0.05 | 83 | 1009.2 |
| 20260506163312 | 67 | 355 | 0.0 | 0.0 | 0.00 | 0.05 | 0.05 | 83 | 1009.1 |
| 20260506163218 | 67 | 5 | 0.0 | 0.0 | 0.00 | 0.05 | 0.05 | 82 | 1009.1 |
| 20260506163151 | 67 | 50 | 0.0 | 0.0 | 0.00 | 0.05 | 0.05 | 83 | 1009.2 |
| 20260506163017 | 67 | 33 | 0.0 | 0.0 | 0.00 | 0.05 | 0.05 | 83 | 1009.2 |
| 20260506163009 | 67 | 33 | 0.0 | 0.0 | 0.00 | 0.05 | 0.05 | 83 | 1008.6 |
| 20260506162926 | 67 | 26 | 0.0 | 0.0 | 0.00 | 0.05 | 0.05 | 83 | 1009.2 |
| 20260506162812 | 67 | 46 | 0.0 | 0.0 | 0.00 | 0.05 | 0.05 | 84 | 1009.3 |
| 20260506162718 | 67 | 36 | 0.0 | 0.0 | 0.00 | 0.05 | 0.05 | 83 | 1009.3 |
| 20260506162651 | 67 | 44 | 0.0 | 0.0 | 0.00 | 0.05 | 0.05 | 84 | 1009.4 |
| 20260506162516 | 67 | 325 | 0.0 | 0.0 | 0.00 | 0.05 | 0.05 | 84 | 1009.2 |
| 20260506162422 | 67 | 5 | 0.0 | 0.0 | 0.00 | 0.05 | 0.05 | 85 | 1009.2 |
| 20260506162332 | 67 | 76 | 0.0 | 0.0 | 0.00 | 0.05 | 0.05 | 84 | 1009.2 |
| 20260506162224 | 67 | 89 | 0.0 | 0.0 | 0.00 | 0.05 | 0.05 | 84 | 1009.2 |
| 20260506162150 | 67 | 11 | 0.0 | 0.0 | 0.00 | 0.05 | 0.05 | 84 | 1009.4 |
| 20260506162015 | 67 | 78 | 0.0 | 0.0 | 0.00 | 0.05 | 0.05 | 84 | 1009.4 |
| 20260506161929 | 67 | 57 | 0.0 | 0.0 | 0.00 | 0.05 | 0.05 | 84 | 1009.4 |
| 20260506161833 | 67 | 77 | 0.0 | 0.0 | 0.00 | 0.05 | 0.05 | 84 | 1009.4 |
| 20260506161723 | 67 | 83 | 0.0 | 0.0 | 0.00 | 0.05 | 0.05 | 84 | 1009.4 |
| 20260506161610 | 66 | 44 | 0.0 | 0.0 | 0.00 | 0.05 | 0.05 | 84 | 1009.6 |
| 20260506161553 | 66 | 47 | 0.0 | 0.0 | 0.00 | 0.05 | 0.05 | 84 | 1009.0 |
| 20260506161516 | 66 | 351 | 0.0 | 0.0 | 0.00 | 0.05 | 0.05 | 85 | 1009.6 |
| 20260506161421 | 66 | 27 | 0.0 | 0.0 | 0.00 | 0.05 | 0.05 | 84 | 1009.6 |
| 20260506161334 | 66 | 65 | 0.0 | 0.0 | 0.00 | 0.05 | 0.05 | 84 | 1009.5 |
| 20260506161221 | 66 | 107 | 0.0 | 0.0 | 0.00 | 0.05 | 0.05 | 85 | 1009.6 |
| 20260506161110 | 66 | 34 | 0.0 | 0.0 | 0.00 | 0.05 | 0.05 | 84 | 1009.6 |
| 20260506161016 | 66 | 61 | 0.0 | 0.0 | 0.00 | 0.05 | 0.05 | 84 | 1009.6 |
| 20260506160922 | 66 | 36 | 0.0 | 0.0 | 0.00 | 0.05 | 0.05 | 85 | 1009.6 |
| 20260506160855 | 66 | 360 | 0.0 | 0.0 | 0.00 | 0.05 | 0.05 | 84 | 1009.6 |
| 20260506160720 | 66 | 42 | 0.0 | 0.0 | 0.00 | 0.05 | 0.05 | 84 | 1009.6 |
| 20260506160610 | 66 | 41 | 0.0 | 0.0 | 0.00 | 0.05 | 0.05 | 84 | 1009.7 |
| 20260506160516 | 66 | 101 | 0.0 | 0.0 | 0.00 | 0.05 | 0.05 | 84 | 1009.7 |
| 20260506160422 | 66 | 70 | 0.0 | 0.0 | 0.00 | 0.05 | 0.05 | 85 | 1009.7 |
| 20260506160335 | 66 | 288 | 0.0 | 0.0 | 0.00 | 0.05 | 0.05 | 85 | 1009.8 |
| 20260506160223 | 66 | 78 | 0.0 | 0.0 | 0.00 | 0.05 | 0.05 | 85 | 1009.7 |
| 20260506160147 | 66 | 62 | 0.0 | 0.0 | 0.00 | 0.05 | 0.05 | 85 | 1009.7 |
| 20260506160059 | 66 | 114 | 0.0 | 0.0 | 0.00 | 0.05 | 0.05 | 85 | 1009.7 |
| 20260506160014 | 66 | 123 | 0.0 | 0.0 | 0.00 | 0.05 | 0.05 | 85 | 1009.2 |
| 20260506155945 | 66 | 108 | 0.0 | 0.0 | 0.00 | 0.05 | 0.05 | 85 | 1009.8 |
| 20260506155810 | 66 | 85 | 0.0 | 0.0 | 0.00 | 0.05 | 0.05 | 86 | 1009.8 |
| 20260506155716 | 66 | 255 | 0.0 | 0.0 | 0.00 | 0.05 | 0.05 | 85 | 1009.8 |
| 20260506155629 | 66 | 254 | 0.0 | 0.0 | 0.00 | 0.05 | 0.05 | 85 | 1009.8 |
| 20260506155515 | 66 | 62 | 0.0 | 0.0 | 0.00 | 0.05 | 0.05 | 85 | 1009.9 |
| 20260506155421 | 66 | 267 | 0.0 | 0.0 | 0.00 | 0.05 | 0.05 | 86 | 1009.9 |
| 20260506155331 | 66 | 304 | 0.0 | 0.0 | 0.00 | 0.05 | 0.05 | 85 | 1009.7 |
| 20260506155223 | 66 | 286 | 0.0 | 0.0 | 0.00 | 0.05 | 0.05 | 85 | 1009.7 |
| 20260506155129 | 66 | 304 | 0.0 | 0.0 | 0.00 | 0.05 | 0.05 | 85 | 1009.7 |
| 20260506155015 | 66 | 106 | 0.0 | 0.0 | 0.00 | 0.05 | 0.05 | 85 | 1009.8 |
| 20260506154921 | 66 | 89 | 0.0 | 0.0 | 0.00 | 0.05 | 0.05 | 86 | 1009.8 |
| 20260506154811 | 66 | 54 | 0.0 | 0.0 | 0.00 | 0.05 | 0.05 | 87 | 1009.7 |
| 20260506154717 | 66 | 47 | 0.0 | 0.0 | 0.00 | 0.05 | 0.05 | 87 | 1009.8 |
| 20260506154630 | 66 | 47 | 0.0 | 0.0 | 0.00 | 0.05 | 0.05 | 87 | 1009.8 |
| 20260506154615 | 65 | 47 | 0.0 | 0.0 | 0.00 | 0.05 | 0.05 | 87 | 1009.3 |
| 20260506154536 | 66 | 28 | 0.0 | 0.0 | 0.00 | 0.05 | 0.05 | 86 | 1009.9 |
| 20260506154421 | 66 | 69 | 0.0 | 0.0 | 0.00 | 0.05 | 0.05 | 87 | 1009.9 |
| 20260506154334 | 65 | 22 | 0.0 | 0.0 | 0.00 | 0.05 | 0.05 | 87 | 1009.9 |
| 20260506154224 | 65 | 67 | 0.0 | 0.0 | 0.00 | 0.05 | 0.05 | 87 | 1009.9 |
| 20260506154130 | 65 | 314 | 0.0 | 0.0 | 0.00 | 0.05 | 0.05 | 87 | 1009.8 |
| 20260506154015 | 65 | 314 | 0.0 | 0.0 | 0.00 | 0.05 | 0.05 | 87 | 1009.7 |
| 20260506153921 | 65 | 15 | 0.0 | 0.0 | 0.00 | 0.05 | 0.05 | 87 | 1009.7 |
| 20260506153834 | 65 | 269 | 0.0 | 0.0 | 0.00 | 0.05 | 0.05 | 88 | 1009.7 |
| 20260506153720 | 65 | 296 | 0.0 | 0.0 | 0.00 | 0.05 | 0.05 | 87 | 1009.7 |
| 20260506153610 | 65 | 281 | 0.0 | 0.0 | 0.00 | 0.05 | 0.05 | 88 | 1009.8 |
| 20260506153516 | 65 | 14 | 0.0 | 0.0 | 0.00 | 0.05 | 0.05 | 88 | 1009.8 |
| 20260506153449 | 65 | 38 | 0.0 | 0.0 | 0.00 | 0.05 | 0.05 | 88 | 1009.8 |
| 20260506153315 | 64 | 326 | 0.0 | 0.0 | 0.00 | 0.05 | 0.05 | 88 | 1009.9 |
| 20260506153220 | 64 | 315 | 0.0 | 0.0 | 0.00 | 0.05 | 0.05 | 88 | 1009.9 |
| 20260506153157 | 64 | 348 | 0.0 | 0.0 | 0.00 | 0.05 | 0.05 | 88 | 1009.3 |
| 20260506153146 | 64 | 360 | 0.0 | 0.0 | 0.00 | 0.05 | 0.05 | 88 | 1009.9 |
| 20260506153038 | 64 | 71 | 0.0 | 0.0 | 0.00 | 0.05 | 0.05 | 88 | 1010.0 |
| 20260506152926 | 64 | 32 | 0.0 | 0.0 | 0.00 | 0.05 | 0.05 | 88 | 1010.0 |
| 20260506152812 | 64 | 334 | 0.0 | 0.0 | 0.00 | 0.05 | 0.05 | 88 | 1009.9 |
| 20260506152719 | 64 | 318 | 0.0 | 0.0 | 0.00 | 0.05 | 0.05 | 88 | 1009.9 |
| 20260506152631 | 64 | 80 | 0.0 | 0.0 | 0.00 | 0.05 | 0.05 | 88 | 1009.8 |
| 20260506152517 | 64 | 77 | 0.0 | 0.0 | 0.00 | 0.05 | 0.05 | 88 | 1009.8 |
| 20260506152422 | 64 | 92 | 0.0 | 0.0 | 0.00 | 0.05 | 0.05 | 88 | 1009.8 |
| 20260506152313 | 64 | 5 | 0.0 | 0.0 | 0.00 | 0.05 | 0.05 | 88 | 1009.8 |
| 20260506152227 | 64 | 5 | 0.0 | 0.0 | 0.00 | 0.05 | 0.05 | 88 | 1009.8 |
| 20260506152131 | 64 | 345 | 0.0 | 0.0 | 0.00 | 0.05 | 0.05 | 88 | 1009.9 |
| 20260506152017 | 64 | 65 | 0.0 | 0.0 | 0.00 | 0.05 | 0.05 | 88 | 1009.8 |
| 20260506151923 | 64 | 303 | 0.0 | 0.0 | 0.00 | 0.05 | 0.05 | 88 | 1009.8 |
| 20260506151813 | 64 | 355 | 0.0 | 0.0 | 0.00 | 0.05 | 0.05 | 89 | 1009.8 |
| 20260506151719 | 63 | 42 | 0.0 | 0.0 | 0.00 | 0.05 | 0.05 | 89 | 1009.8 |
| 20260506151632 | 63 | 46 | 0.0 | 0.0 | 0.00 | 0.05 | 0.05 | 89 | 1009.7 |
| 20260506151519 | 63 | 319 | 0.0 | 0.0 | 0.00 | 0.05 | 0.05 | 89 | 1009.8 |
| 20260506151510 | 63 | 319 | 0.0 | 0.0 | 0.00 | 0.05 | 0.05 | 89 | 1009.2 |
| 20260506151424 | 63 | 319 | 0.0 | 0.0 | 0.00 | 0.05 | 0.05 | 89 | 1009.8 |
| 20260506151314 | 63 | 298 | 0.0 | 0.0 | 0.00 | 0.05 | 0.05 | 89 | 1009.9 |
| 20260506151220 | 63 | 298 | 0.0 | 0.0 | 0.00 | 0.05 | 0.05 | 89 | 1009.9 |
| 20260506151126 | 63 | 29 | 0.0 | 0.0 | 0.00 | 0.05 | 0.05 | 89 | 1009.9 |
| 20260506151012 | 63 | 46 | 0.0 | 0.0 | 0.00 | 0.05 | 0.05 | 89 | 1009.8 |
| 20260506150925 | 63 | 46 | 0.0 | 0.0 | 0.00 | 0.05 | 0.05 | 89 | 1009.8 |
| 20260506150811 | 63 | 50 | 0.0 | 0.0 | 0.00 | 0.05 | 0.05 | 89 | 1009.9 |
| 20260506150722 | 63 | 84 | 0.0 | 0.0 | 0.00 | 0.05 | 0.05 | 89 | 1009.9 |
| 20260506150628 | 63 | 84 | 0.0 | 0.0 | 0.00 | 0.05 | 0.05 | 89 | 1009.9 |
| 20260506150514 | 63 | 63 | 0.0 | 0.0 | 0.00 | 0.05 | 0.05 | 89 | 1009.9 |
| 20260506150447 | 63 | 70 | 0.0 | 0.0 | 0.00 | 0.05 | 0.05 | 89 | 1009.9 |
| 20260506150312 | 63 | 303 | 0.0 | 0.0 | 0.00 | 0.05 | 0.05 | 89 | 1009.9 |
| 20260506150238 | 63 | 297 | 0.0 | 0.0 | 0.00 | 0.05 | 0.05 | 89 | 1009.9 |
| 20260506150134 | 63 | 297 | 0.0 | 0.0 | 0.00 | 0.05 | 0.05 | 89 | 1009.8 |
| 20260506150020 | 63 | 325 | 0.0 | 0.0 | 0.00 | 0.05 | 0.05 | 89 | 1009.7 |
| 20260506150007 | 63 | 318 | 0.0 | 0.0 | 0.00 | 0.05 | 0.05 | 89 | 1009.1 |
| 20260506145926 | 63 | 20 | 0.0 | 0.0 | 0.00 | 0.05 | 0.05 | 89 | 1009.7 |
| 20260506145812 | 63 | 341 | 0.0 | 0.0 | 0.00 | 0.05 | 0.05 | 89 | 1009.7 |
| 20260506145718 | 63 | 342 | 0.0 | 0.0 | 0.00 | 0.05 | 0.05 | 89 | 1009.7 |
| 20260506145624 | 63 | 15 | 0.0 | 0.0 | 0.00 | 0.05 | 0.05 | 89 | 1009.7 |
| 20260506145514 | 63 | 69 | 0.0 | 0.0 | 0.00 | 0.05 | 0.05 | 89 | 1009.6 |
| 20260506145447 | 63 | 5 | 0.0 | 0.0 | 0.00 | 0.05 | 0.05 | 89 | 1009.6 |
| 20260506145312 | 63 | 39 | 0.0 | 0.0 | 0.00 | 0.05 | 0.05 | 89 | 1009.8 |
| 20260506145218 | 63 | 80 | 0.0 | 0.0 | 0.00 | 0.05 | 0.05 | 89 | 1009.8 |
| 20260506145131 | 63 | 15 | 0.0 | 0.0 | 0.00 | 0.05 | 0.05 | 89 | 1009.8 |
| 20260506145021 | 63 | 26 | 0.0 | 0.0 | 0.00 | 0.05 | 0.05 | 89 | 1009.9 |
| 20260506144927 | 63 | 86 | 0.0 | 0.0 | 0.00 | 0.05 | 0.05 | 90 | 1009.9 |
| 20260506144813 | 63 | 49 | 0.0 | 0.0 | 0.00 | 0.05 | 0.05 | 90 | 1009.8 |
| 20260506144719 | 63 | 52 | 0.0 | 0.0 | 0.00 | 0.05 | 0.05 | 90 | 1009.8 |
| 20260506144639 | 63 | 52 | 0.0 | 0.0 | 0.00 | 0.05 | 0.05 | 90 | 1009.2 |
| 20260506144625 | 63 | 52 | 0.0 | 0.0 | 0.00 | 0.05 | 0.05 | 90 | 1009.8 |
| 20260506144538 | 63 | 108 | 0.0 | 0.0 | 0.00 | 0.05 | 0.05 | 90 | 1009.9 |
| 20260506144427 | 63 | 108 | 0.0 | 0.0 | 0.00 | 0.05 | 0.05 | 90 | 1009.9 |
| 20260506144313 | 63 | 48 | 0.0 | 0.0 | 0.00 | 0.05 | 0.05 | 90 | 1009.9 |
| 20260506144246 | 63 | 48 | 0.0 | 0.0 | 0.00 | 0.05 | 0.05 | 90 | 1009.9 |
| 20260506144111 | 63 | 38 | 0.0 | 0.0 | 0.00 | 0.05 | 0.05 | 90 | 1009.9 |
| 20260506144017 | 63 | 355 | 0.0 | 0.0 | 0.00 | 0.05 | 0.05 | 90 | 1009.9 |
| 20260506143922 | 63 | 355 | 0.0 | 0.0 | 0.00 | 0.05 | 0.05 | 90 | 1009.9 |
| 20260506143812 | 63 | 30 | 0.0 | 0.0 | 0.00 | 0.05 | 0.05 | 90 | 1009.9 |
| 20260506143719 | 63 | 55 | 0.0 | 0.0 | 0.00 | 0.05 | 0.05 | 90 | 1009.9 |
| 20260506143632 | 63 | 39 | 0.0 | 0.0 | 0.00 | 0.05 | 0.05 | 90 | 1009.9 |
| 20260506143538 | 63 | 307 | 0.0 | 0.0 | 0.00 | 0.05 | 0.05 | 90 | 1010.0 |
| 20260506143429 | 63 | 339 | 0.0 | 0.0 | 0.00 | 0.05 | 0.05 | 90 | 1010.0 |
| 20260506143315 | 63 | 73 | 0.0 | 0.0 | 0.00 | 0.05 | 0.05 | 90 | 1010.0 |
| 20260506143225 | 63 | 64 | 0.0 | 0.0 | 0.00 | 0.05 | 0.05 | 90 | 1010.0 |
| 20260506143131 | 63 | 63 | 0.0 | 0.0 | 0.00 | 0.05 | 0.05 | 90 | 1010.0 |
| 20260506143023 | 63 | 57 | 0.0 | 0.0 | 0.00 | 0.05 | 0.05 | 91 | 1010.0 |
| 20260506143013 | 62 | 61 | 0.0 | 0.0 | 0.00 | 0.05 | 0.05 | 91 | 1009.5 |
| 20260506142929 | 63 | 146 | 0.0 | 0.0 | 0.00 | 0.05 | 0.05 | 91 | 1010.1 |
| 20260506142815 | 63 | 320 | 0.0 | 0.0 | 0.00 | 0.05 | 0.05 | 91 | 1010.1 |
| 20260506142721 | 63 | 294 | 0.0 | 0.0 | 0.00 | 0.05 | 0.05 | 91 | 1010.1 |
| 20260506142611 | 62 | 289 | 0.0 | 0.0 | 0.00 | 0.05 | 0.05 | 91 | 1010.0 |
| 20260506142517 | 62 | 313 | 0.0 | 0.0 | 0.00 | 0.05 | 0.05 | 91 | 1010.0 |
| 20260506142430 | 62 | 39 | 0.0 | 0.0 | 0.00 | 0.05 | 0.05 | 92 | 1010.0 |
| 20260506142315 | 62 | 58 | 0.0 | 0.0 | 0.00 | 0.05 | 0.05 | 91 | 1009.9 |
| 20260506142221 | 62 | 52 | 0.0 | 0.0 | 0.00 | 0.05 | 0.05 | 91 | 1009.9 |
| 20260506142134 | 62 | 98 | 0.0 | 0.0 | 0.00 | 0.05 | 0.05 | 91 | 1009.9 |
| 20260506142024 | 62 | 98 | 0.0 | 0.0 | 0.00 | 0.05 | 0.05 | 91 | 1009.9 |
| 20260506141930 | 62 | 103 | 0.0 | 0.0 | 0.00 | 0.05 | 0.05 | 91 | 1010.0 |
| 20260506141816 | 62 | 79 | 0.0 | 0.0 | 0.00 | 0.05 | 0.05 | 91 | 1010.1 |
| 20260506141722 | 62 | 49 | 0.0 | 0.0 | 0.00 | 0.05 | 0.05 | 92 | 1010.1 |
| 20260506141628 | 62 | 26 | 0.0 | 0.0 | 0.00 | 0.05 | 0.05 | 92 | 1010.2 |
| 20260506141536 | 62 | 19 | 0.0 | 0.0 | 0.00 | 0.05 | 0.05 | 92 | 1009.7 |
| 20260506141518 | 62 | 19 | 0.0 | 0.0 | 0.00 | 0.05 | 0.05 | 92 | 1010.3 |
| 20260506141428 | 62 | 47 | 0.0 | 0.0 | 0.00 | 0.05 | 0.05 | 92 | 1010.3 |
| 20260506141314 | 62 | 34 | 0.0 | 0.0 | 0.00 | 0.05 | 0.05 | 92 | 1010.2 |
| 20260506141220 | 62 | 46 | 0.0 | 0.0 | 0.00 | 0.05 | 0.05 | 92 | 1010.2 |
| 20260506141154 | 62 | 46 | 0.0 | 0.0 | 0.00 | 0.05 | 0.05 | 92 | 1010.2 |
| 20260506141011 | 62 | 46 | 0.0 | 0.0 | 0.00 | 0.05 | 0.05 | 92 | 1010.2 |
| 20260506140928 | 62 | 44 | 0.0 | 0.0 | 0.00 | 0.05 | 0.05 | 92 | 1010.2 |
| 20260506140834 | 62 | 37 | 0.0 | 0.0 | 0.00 | 0.05 | 0.05 | 92 | 1010.1 |
| 20260506140716 | 62 | 13 | 0.0 | 0.0 | 0.00 | 0.05 | 0.05 | 92 | 1010.1 |
| 20260506140629 | 62 | 25 | 0.0 | 0.0 | 0.00 | 0.05 | 0.05 | 92 | 1010.1 |
| 20260506140514 | 62 | 29 | 0.0 | 0.0 | 0.01 | 0.05 | 0.05 | 92 | 1010.0 |
| 20260506140421 | 62 | 24 | 0.0 | 0.0 | 0.01 | 0.05 | 0.05 | 92 | 1010.0 |
| 20260506140311 | 62 | 22 | 0.0 | 0.0 | 0.01 | 0.05 | 0.05 | 92 | 1010.0 |
| 20260506140217 | 62 | 49 | 0.0 | 0.0 | 0.01 | 0.05 | 0.05 | 92 | 1010.1 |
| 20260506140123 | 61 | 40 | 0.0 | 0.0 | 0.01 | 0.05 | 0.05 | 92 | 1010.1 |
| 20260506140035 | 61 | 40 | 0.0 | 0.0 | 0.01 | 0.05 | 0.05 | 92 | 1009.5 |
| 20260506140008 | 61 | 40 | 0.0 | 0.0 | 0.01 | 0.05 | 0.05 | 92 | 1010.1 |
| 20260506135922 | 61 | 34 | 0.0 | 0.0 | 0.01 | 0.05 | 0.05 | 92 | 1010.1 |
| 20260506135812 | 61 | 34 | 0.0 | 0.0 | 0.01 | 0.05 | 0.05 | 92 | 1010.1 |
| 20260506135718 | 61 | 34 | 0.0 | 0.0 | 0.01 | 0.05 | 0.05 | 92 | 1010.1 |
| 20260506135623 | 61 | 27 | 0.0 | 0.0 | 0.01 | 0.05 | 0.05 | 92 | 1010.2 |
| 20260506135510 | 61 | 88 | 0.0 | 0.0 | 0.01 | 0.05 | 0.05 | 93 | 1010.2 |
| 20260506135424 | 61 | 68 | 0.0 | 0.0 | 0.01 | 0.05 | 0.05 | 93 | 1010.2 |
| 20260506135329 | 61 | 53 | 0.0 | 0.0 | 0.02 | 0.05 | 0.05 | 93 | 1010.3 |
| 20260506135219 | 61 | 19 | 0.0 | 0.0 | 0.02 | 0.05 | 0.05 | 93 | 1010.3 |
| 20260506135125 | 61 | 19 | 0.0 | 0.0 | 0.02 | 0.05 | 0.05 | 93 | 1010.3 |
| 20260506135030 | 61 | 19 | 0.0 | 0.0 | 0.02 | 0.05 | 0.05 | 93 | 1010.3 |
| 20260506134922 | 61 | 19 | 0.0 | 0.0 | 0.02 | 0.05 | 0.05 | 93 | 1010.3 |
| 20260506134849 | 61 | 19 | 0.0 | 0.0 | 0.02 | 0.05 | 0.05 | 93 | 1010.3 |
| 20260506134713 | 61 | 19 | 0.0 | 0.0 | 0.02 | 0.05 | 0.05 | 93 | 1010.3 |
| 20260506134630 | 61 | 19 | 0.0 | 0.0 | 0.02 | 0.05 | 0.05 | 93 | 1010.3 |
| 20260506134516 | 61 | 44 | 0.0 | 0.0 | 0.02 | 0.05 | 0.05 | 93 | 1010.2 |
| 20260506134506 | 61 | 44 | 0.0 | 0.0 | 0.02 | 0.05 | 0.05 | 93 | 1009.6 |
| 20260506134421 | 61 | 67 | 0.0 | 0.0 | 0.02 | 0.05 | 0.05 | 93 | 1010.2 |
| 20260506134327 | 61 | 55 | 0.0 | 0.0 | 0.02 | 0.05 | 0.05 | 93 | 1010.3 |
| 20260506134213 | 61 | 74 | 0.0 | 0.0 | 0.02 | 0.05 | 0.05 | 93 | 1010.5 |
| 20260506134146 | 61 | 74 | 0.0 | 0.0 | 0.02 | 0.05 | 0.05 | 93 | 1010.5 |
| 20260506134015 | 61 | 74 | 0.0 | 0.0 | 0.02 | 0.05 | 0.05 | 93 | 1010.5 |
| 20260506133921 | 61 | 74 | 0.0 | 0.0 | 0.02 | 0.05 | 0.05 | 93 | 1010.5 |
| 20260506133855 | 61 | 74 | 0.0 | 0.0 | 0.02 | 0.05 | 0.05 | 93 | 1010.6 |
| 20260506133716 | 61 | 74 | 0.0 | 0.0 | 0.02 | 0.05 | 0.05 | 93 | 1010.5 |
| 20260506133642 | 61 | 38 | 0.0 | 0.0 | 0.02 | 0.05 | 0.05 | 93 | 1010.5 |
| 20260506133534 | 61 | 38 | 0.0 | 0.0 | 0.02 | 0.05 | 0.05 | 93 | 1010.5 |
| 20260506133419 | 61 | 38 | 0.0 | 0.0 | 0.02 | 0.05 | 0.05 | 93 | 1010.5 |
| 20260506133309 | 61 | 38 | 0.0 | 0.0 | 0.02 | 0.05 | 0.05 | 93 | 1010.5 |
| 20260506133215 | 61 | 38 | 0.0 | 0.0 | 0.02 | 0.05 | 0.05 | 93 | 1010.4 |
| 20260506133121 | 61 | 38 | 0.0 | 0.0 | 0.02 | 0.05 | 0.05 | 93 | 1010.4 |
| 20260506133034 | 61 | 38 | 0.0 | 0.0 | 0.02 | 0.05 | 0.05 | 93 | 1010.4 |
| 20260506133017 | 61 | 38 | 0.0 | 0.0 | 0.02 | 0.05 | 0.05 | 93 | 1009.8 |
| 20260506132919 | 61 | 38 | 0.0 | 0.0 | 0.02 | 0.05 | 0.05 | 93 | 1010.4 |
| 20260506132809 | 61 | 38 | 0.0 | 0.0 | 0.03 | 0.05 | 0.05 | 93 | 1010.2 |
| 20260506132715 | 61 | 38 | 0.0 | 0.0 | 0.03 | 0.05 | 0.05 | 93 | 1010.2 |
| 20260506132621 | 61 | 38 | 0.0 | 0.0 | 0.03 | 0.05 | 0.05 | 93 | 1010.2 |
| 20260506132535 | 61 | 38 | 0.0 | 0.0 | 0.03 | 0.05 | 0.05 | 93 | 1010.3 |
| 20260506132413 | 61 | 38 | 0.0 | 0.0 | 0.03 | 0.05 | 0.05 | 93 | 1010.2 |
| 20260506132326 | 61 | 38 | 0.0 | 0.0 | 0.03 | 0.05 | 0.05 | 93 | 1010.2 |
| 20260506132236 | 61 | 38 | 0.0 | 0.0 | 0.03 | 0.05 | 0.05 | 93 | 1010.2 |
| 20260506132121 | 61 | 38 | 0.0 | 0.0 | 0.03 | 0.05 | 0.05 | 93 | 1010.2 |
| 20260506132035 | 61 | 38 | 0.0 | 0.0 | 0.04 | 0.05 | 0.05 | 93 | 1010.2 |
| 20260506131920 | 61 | 38 | 0.0 | 0.0 | 0.04 | 0.05 | 0.05 | 93 | 1010.2 |
| 20260506131826 | 61 | 38 | 0.0 | 0.0 | 0.04 | 0.05 | 0.05 | 93 | 1010.3 |
| 20260506131712 | 61 | 38 | 0.0 | 0.0 | 0.04 | 0.05 | 0.05 | 93 | 1010.2 |
| 20260506131629 | 61 | 38 | 0.0 | 0.0 | 0.04 | 0.05 | 0.05 | 93 | 1010.2 |
| 20260506131535 | 61 | 38 | 0.0 | 0.0 | 0.04 | 0.05 | 0.05 | 93 | 1010.2 |
| 20260506131510 | 61 | 38 | 0.0 | 0.0 | 0.04 | 0.05 | 0.05 | 93 | 1009.6 |
| 20260506131421 | 61 | 38 | 0.0 | 0.0 | 0.04 | 0.05 | 0.05 | 93 | 1010.2 |
| 20260506131327 | 61 | 38 | 0.0 | 0.0 | 0.04 | 0.05 | 0.05 | 93 | 1010.3 |
| 20260506131213 | 61 | 38 | 0.0 | 0.0 | 0.04 | 0.05 | 0.05 | 93 | 1010.3 |
| 20260506131123 | 61 | 38 | 0.0 | 0.0 | 0.04 | 0.05 | 0.05 | 93 | 1010.3 |
| 20260506131009 | 61 | 38 | 0.0 | 0.0 | 0.04 | 0.05 | 0.05 | 93 | 1010.2 |
| 20260506130922 | 61 | 38 | 0.0 | 0.0 | 0.04 | 0.05 | 0.05 | 93 | 1010.2 |
| 20260506130809 | 61 | 38 | 0.0 | 0.0 | 0.04 | 0.05 | 0.05 | 93 | 1010.2 |
| 20260506130714 | 61 | 38 | 0.0 | 0.0 | 0.04 | 0.05 | 0.05 | 93 | 1010.1 |
| 20260506130620 | 61 | 38 | 0.0 | 0.0 | 0.04 | 0.05 | 0.05 | 93 | 1010.1 |
| 20260506130509 | 61 | 38 | 0.0 | 0.0 | 0.03 | 0.04 | 0.04 | 93 | 1010.1 |
| 20260506130416 | 61 | 38 | 0.0 | 0.0 | 0.03 | 0.04 | 0.04 | 93 | 1010.0 |
| 20260506130349 | 61 | 38 | 0.0 | 0.0 | 0.03 | 0.04 | 0.04 | 93 | 1010.0 |
| 20260506130213 | 61 | 38 | 0.0 | 0.0 | 0.03 | 0.04 | 0.04 | 93 | 1010.0 |
| 20260506130147 | 61 | 38 | 0.0 | 0.0 | 0.03 | 0.04 | 0.04 | 93 | 1010.0 |
| 20260506130011 | 61 | 38 | 0.0 | 0.0 | 0.03 | 0.04 | 0.04 | 93 | 1010.1 |
| 20260506130003 | 60 | 38 | 0.0 | 0.0 | 0.03 | 0.04 | 0.04 | 93 | 1009.6 |
| 20260506125922 | 61 | 38 | 0.0 | 0.0 | 0.03 | 0.04 | 0.04 | 93 | 1010.1 |
| 20260506125854 | 61 | 38 | 0.0 | 0.0 | 0.03 | 0.04 | 0.04 | 93 | 1010.2 |
| 20260506125721 | 61 | 38 | 0.0 | 0.0 | 0.03 | 0.04 | 0.04 | 93 | 1010.1 |
| 20260506125625 | 61 | 38 | 0.0 | 0.0 | 0.03 | 0.04 | 0.04 | 93 | 1010.1 |
| 20260506125511 | 61 | 38 | 0.0 | 0.0 | 0.04 | 0.04 | 0.04 | 93 | 1010.2 |
| 20260506125417 | 61 | 38 | 0.0 | 0.0 | 0.03 | 0.03 | 0.03 | 93 | 1010.2 |
| 20260506125327 | 61 | 38 | 0.0 | 0.0 | 0.03 | 0.03 | 0.03 | 93 | 1010.2 |
| 20260506125213 | 61 | 38 | 0.0 | 0.0 | 0.03 | 0.03 | 0.03 | 93 | 1010.3 |
| 20260506125127 | 61 | 38 | 0.0 | 0.0 | 0.03 | 0.03 | 0.03 | 93 | 1010.3 |
| 20260506125012 | 61 | 38 | 0.0 | 0.0 | 0.03 | 0.03 | 0.03 | 93 | 1010.3 |
| 20260506124918 | 61 | 38 | 0.0 | 0.0 | 0.03 | 0.03 | 0.03 | 93 | 1010.3 |
| 20260506124828 | 61 | 38 | 0.0 | 0.0 | 0.03 | 0.03 | 0.03 | 93 | 1010.3 |
| 20260506124714 | 61 | 38 | 0.0 | 0.0 | 0.03 | 0.03 | 0.03 | 93 | 1010.3 |
| 20260506124620 | 61 | 38 | 0.0 | 0.0 | 0.03 | 0.03 | 0.03 | 93 | 1010.3 |
| 20260506124533 | 61 | 38 | 0.0 | 0.0 | 0.03 | 0.03 | 0.03 | 93 | 1010.3 |
| 20260506124516 | 60 | 38 | 0.0 | 0.0 | 0.03 | 0.03 | 0.03 | 93 | 1009.6 |
| 20260506124418 | 61 | 38 | 0.0 | 0.0 | 0.03 | 0.03 | 0.03 | 93 | 1010.2 |
| 20260506124324 | 61 | 38 | 0.0 | 0.0 | 0.03 | 0.03 | 0.03 | 93 | 1010.1 |
| 20260506124214 | 61 | 38 | 0.0 | 0.0 | 0.03 | 0.03 | 0.03 | 93 | 1010.2 |
| 20260506124120 | 61 | 38 | 0.0 | 0.0 | 0.03 | 0.03 | 0.03 | 93 | 1010.2 |
| 20260506124026 | 61 | 38 | 0.0 | 0.0 | 0.03 | 0.03 | 0.03 | 93 | 1010.1 |
| 20260506123912 | 61 | 38 | 0.0 | 0.0 | 0.03 | 0.03 | 0.03 | 93 | 1010.1 |
| 20260506123825 | 61 | 38 | 0.0 | 0.0 | 0.03 | 0.03 | 0.03 | 93 | 1010.1 |
| 20260506123735 | 61 | 38 | 0.0 | 0.0 | 0.03 | 0.03 | 0.03 | 93 | 1010.1 |
| 20260506123620 | 61 | 38 | 0.0 | 0.0 | 0.03 | 0.03 | 0.03 | 93 | 1010.1 |
| 20260506123533 | 61 | 38 | 0.0 | 0.0 | 0.03 | 0.03 | 0.03 | 93 | 1010.1 |
| 20260506123419 | 61 | 38 | 0.0 | 0.0 | 0.03 | 0.03 | 0.03 | 93 | 1010.1 |
| 20260506123325 | 61 | 38 | 0.0 | 0.0 | 0.03 | 0.03 | 0.03 | 93 | 1010.1 |
| 20260506123211 | 60 | 38 | 0.0 | 0.0 | 0.03 | 0.03 | 0.03 | 93 | 1010.2 |
| 20260506123121 | 60 | 38 | 0.0 | 0.0 | 0.03 | 0.03 | 0.03 | 93 | 1010.2 |
| 20260506123044 | 60 | 38 | 0.0 | 0.0 | 0.03 | 0.03 | 0.03 | 93 | 1009.7 |
| 20260506123027 | 60 | 38 | 0.0 | 0.0 | 0.03 | 0.03 | 0.03 | 93 | 1010.2 |
| 20260506122913 | 60 | 38 | 0.0 | 0.0 | 0.02 | 0.02 | 0.02 | 93 | 1010.3 |
| 20260506122826 | 60 | 38 | 0.0 | 0.0 | 0.02 | 0.02 | 0.02 | 93 | 1010.3 |
| 20260506122733 | 60 | 38 | 0.0 | 0.0 | 0.02 | 0.02 | 0.02 | 93 | 1010.1 |
| 20260506122645 | 60 | 38 | 0.0 | 0.0 | 0.02 | 0.02 | 0.02 | 93 | 1010.1 |
| 20260506122514 | 60 | 38 | 0.0 | 0.0 | 0.02 | 0.02 | 0.02 | 93 | 1010.1 |
| 20260506122440 | 60 | 38 | 0.0 | 0.0 | 0.02 | 0.02 | 0.02 | 93 | 1010.1 |
| 20260506122332 | 60 | 38 | 0.0 | 0.0 | 0.02 | 0.02 | 0.02 | 93 | 1010.1 |
| 20260506122211 | 60 | 38 | 0.0 | 0.0 | 0.02 | 0.02 | 0.02 | 92 | 1010.2 |
| 20260506122124 | 60 | 38 | 0.0 | 0.0 | 0.02 | 0.02 | 0.02 | 92 | 1010.2 |
| 20260506122010 | 60 | 38 | 0.0 | 0.0 | 0.01 | 0.01 | 0.01 | 92 | 1010.3 |
| 20260506121940 | 60 | 38 | 0.0 | 0.0 | 0.01 | 0.01 | 0.01 | 92 | 1010.3 |
| 20260506121832 | 60 | 38 | 0.0 | 0.0 | 0.01 | 0.01 | 0.01 | 92 | 1010.3 |
| 20260506121718 | 60 | 38 | 0.0 | 0.0 | 0.01 | 0.01 | 0.01 | 92 | 1010.3 |
| 20260506121644 | 60 | 38 | 0.0 | 0.0 | 0.01 | 0.01 | 0.01 | 92 | 1010.4 |
| 20260506121535 | 60 | 38 | 0.0 | 0.0 | 0.01 | 0.01 | 0.01 | 92 | 1010.4 |
| 20260506121523 | 60 | 38 | 0.0 | 0.0 | 0.01 | 0.01 | 0.01 | 92 | 1009.8 |
| 20260506121422 | 60 | 38 | 0.0 | 0.0 | 0.01 | 0.01 | 0.01 | 92 | 1010.3 |
| 20260506121311 | 60 | 38 | 0.0 | 0.0 | 0.01 | 0.01 | 0.01 | 92 | 1010.2 |
| 20260506121217 | 60 | 38 | 0.0 | 0.0 | 0.01 | 0.01 | 0.01 | 92 | 1010.2 |
| 20260506121123 | 60 | 38 | 0.0 | 0.0 | 0.01 | 0.01 | 0.01 | 92 | 1010.2 |
| 20260506121009 | 60 | 38 | 0.0 | 0.0 | 0.01 | 0.01 | 0.01 | 92 | 1010.3 |
| 20260506120916 | 60 | 38 | 0.0 | 0.0 | 0.01 | 0.01 | 0.01 | 92 | 1010.3 |
| 20260506120828 | 60 | 38 | 0.0 | 0.0 | 0.01 | 0.01 | 0.01 | 92 | 1010.3 |
| 20260506120718 | 60 | 38 | 0.0 | 0.0 | 0.01 | 0.01 | 0.01 | 92 | 1010.3 |
| 20260506120646 | 60 | 38 | 0.0 | 0.0 | 0.01 | 0.01 | 0.01 | 92 | 1010.2 |
| 20260506120510 | 60 | 38 | 0.0 | 0.0 | 0.01 | 0.01 | 0.01 | 92 | 1010.1 |
| 20260506120424 | 60 | 38 | 0.0 | 0.0 | 0.01 | 0.01 | 0.01 | 92 | 1010.1 |
| 20260506120329 | 60 | 38 | 0.0 | 0.0 | 0.01 | 0.01 | 0.01 | 92 | 1010.0 |
| 20260506120236 | 60 | 38 | 0.0 | 0.0 | 0.01 | 0.01 | 0.01 | 92 | 1010.0 |
| 20260506120137 | 60 | 38 | 0.0 | 0.0 | 0.01 | 0.01 | 0.01 | 92 | 1009.5 |
| 20260506120124 | 60 | 38 | 0.0 | 0.0 | 0.01 | 0.01 | 0.01 | 92 | 1010.0 |
| 20260506120038 | 60 | 38 | 0.0 | 0.0 | 0.01 | 0.01 | 0.01 | 92 | 1010.1 |
| 20260506115922 | 60 | 38 | 0.0 | 0.0 | 0.01 | 0.01 | 0.01 | 92 | 1010.1 |
| 20260506115828 | 60 | 38 | 0.0 | 0.0 | 0.01 | 0.01 | 0.01 | 92 | 1010.1 |
| 20260506115741 | 60 | 38 | 0.0 | 0.0 | 0.01 | 0.01 | 0.01 | 92 | 1010.1 |
| 20260506115626 | 60 | 38 | 0.0 | 0.0 | 0.01 | 0.01 | 0.01 | 92 | 1010.2 |
| 20260506115516 | 60 | 38 | 0.0 | 0.0 | 0.00 | 0.00 | 0.00 | 92 | 1010.1 |
| 20260506115422 | 60 | 38 | 0.0 | 0.0 | 0.00 | 0.00 | 0.00 | 92 | 1010.1 |
| 20260506115309 | 60 | 38 | 0.0 | 0.0 | 0.00 | 0.00 | 0.00 | 92 | 1010.1 |
| 20260506115242 | 60 | 38 | 0.0 | 0.0 | 0.00 | 0.00 | 0.00 | 92 | 1010.1 |
| 20260506115127 | 60 | 38 | 0.0 | 0.0 | 0.00 | 0.00 | 0.00 | 91 | 1010.1 |
| 20260506115013 | 60 | 38 | 0.0 | 0.0 | 0.00 | 0.00 | 0.00 | 92 | 1010.0 |
| 20260506114923 | 60 | 38 | 0.0 | 0.0 | 0.00 | 0.00 | 0.00 | 92 | 1010.0 |
| 20260506114810 | 60 | 38 | 0.0 | 0.0 | 0.00 | 0.00 | 0.00 | 92 | 1010.1 |
| 20260506114722 | 60 | 38 | 0.0 | 0.0 | 0.00 | 0.00 | 0.00 | 92 | 1010.1 |
| 20260506114648 | 60 | 38 | 0.0 | 0.0 | 0.00 | 0.00 | 0.00 | 92 | 1010.0 |
| 20260506114540 | 60 | 38 | 0.0 | 0.0 | 0.00 | 0.00 | 0.00 | 92 | 1010.1 |
| 20260506114518 | 60 | 38 | 0.0 | 0.0 | 0.00 | 0.00 | 0.00 | 92 | 1009.5 |
| 20260506114445 | 60 | 38 | 0.0 | 0.0 | 0.00 | 0.00 | 0.00 | 91 | 1010.1 |
| 20260506114330 | 60 | 38 | 0.0 | 0.0 | 0.00 | 0.00 | 0.00 | 91 | 1010.0 |
| 20260506114246 | 60 | 38 | 0.0 | 0.0 | 0.00 | 0.00 | 0.00 | 91 | 1010.0 |
| 20260506114111 | 60 | 38 | 0.0 | 0.0 | 0.00 | 0.00 | 0.00 | 91 | 1009.9 |
| 20260506114017 | 60 | 38 | 0.0 | 0.0 | 0.00 | 0.00 | 0.00 | 91 | 1009.9 |
| 20260506113930 | 60 | 38 | 0.0 | 0.0 | 0.00 | 0.00 | 0.00 | 91 | 1009.8 |
| 20260506113835 | 60 | 38 | 0.0 | 0.0 | 0.00 | 0.00 | 0.00 | 91 | 1009.7 |
| 20260506113727 | 60 | 38 | 0.0 | 0.0 | 0.00 | 0.00 | 0.00 | 91 | 1009.7 |
| 20260506113633 | 60 | 38 | 0.0 | 0.0 | 0.00 | 0.00 | 0.00 | 92 | 1009.8 |
| 20260506113549 | 60 | 38 | 0.0 | 0.0 | 0.00 | 0.00 | 0.00 | 91 | 1009.8 |
| 20260506113434 | 60 | 38 | 0.0 | 0.0 | 0.00 | 0.00 | 0.00 | 91 | 1009.8 |
| 20260506113320 | 60 | 141 | 0.0 | 0.0 | 0.00 | 0.00 | 0.00 | 91 | 1009.8 |
| 20260506113233 | 60 | 141 | 0.0 | 0.0 | 0.00 | 0.00 | 0.00 | 91 | 1009.9 |
| 20260506113138 | 60 | 141 | 0.0 | 0.0 | 0.00 | 0.00 | 0.00 | 91 | 1009.9 |
| 20260506113031 | 60 | 141 | 0.0 | 0.0 | 0.00 | 0.00 | 0.00 | 91 | 1009.8 |
| 20260506113002 | 59 | 141 | 0.0 | 0.0 | 0.00 | 0.00 | 0.00 | 91 | 1009.2 |
| 20260506112935 | 60 | 141 | 0.0 | 0.0 | 0.00 | 0.00 | 0.00 | 91 | 1009.8 |
| 20260506112847 | 60 | 141 | 0.0 | 0.0 | 0.00 | 0.00 | 0.00 | 91 | 1009.8 |
| 20260506112716 | 60 | 141 | 0.0 | 0.0 | 0.00 | 0.00 | 0.00 | 91 | 1009.8 |
| 20260506112622 | 60 | 141 | 0.0 | 0.0 | 0.00 | 0.00 | 0.00 | 91 | 1009.8 |
| 20260506112527 | 60 | 141 | 0.0 | 0.0 | 0.00 | 0.00 | 0.00 | 91 | 1009.9 |
| 20260506112441 | 60 | 141 | 0.0 | 0.0 | 0.00 | 0.00 | 0.00 | 91 | 1009.9 |
| 20260506112326 | 60 | 141 | 0.0 | 0.0 | 0.00 | 0.00 | 0.00 | 91 | 1009.8 |
| 20260506112212 | 60 | 141 | 0.0 | 0.0 | 0.00 | 0.00 | 0.00 | 91 | 1009.8 |
| 20260506112149 | 60 | 333 | 0.0 | 0.0 | 0.00 | 0.00 | 0.00 | 91 | 1009.8 |
| 20260506112013 | 60 | 333 | 0.0 | 0.0 | 0.00 | 0.00 | 0.00 | 91 | 1009.9 |
| 20260506111920 | 60 | 333 | 0.0 | 0.0 | 0.00 | 0.00 | 0.00 | 91 | 1009.9 |
| 20260506111826 | 60 | 333 | 0.0 | 0.0 | 0.00 | 0.00 | 0.00 | 91 | 1010.0 |
| 20260506111711 | 60 | 333 | 0.0 | 0.0 | 0.00 | 0.00 | 0.00 | 91 | 1009.9 |
| 20260506111617 | 60 | 337 | 0.0 | 0.0 | 0.00 | 0.00 | 0.00 | 91 | 1009.9 |
| 20260506111534 | 60 | 350 | 0.0 | 0.0 | 0.00 | 0.00 | 0.00 | 91 | 1009.8 |
| 20260506111515 | 59 | 360 | 0.0 | 0.0 | 0.00 | 0.00 | 0.00 | 91 | 1009.2 |
| 20260506111441 | 60 | 26 | 0.0 | 0.0 | 0.00 | 0.00 | 0.00 | 91 | 1009.7 |
| 20260506111326 | 60 | 320 | 0.0 | 0.0 | 0.00 | 0.00 | 0.00 | 91 | 1009.8 |
| 20260506111212 | 60 | 195 | 0.0 | 0.0 | 0.00 | 0.00 | 0.00 | 91 | 1009.8 |
| 20260506111124 | 60 | 195 | 0.0 | 0.0 | 0.00 | 0.00 | 0.00 | 91 | 1009.8 |
| 20260506111030 | 60 | 195 | 0.0 | 0.0 | 0.00 | 0.00 | 0.00 | 91 | 1009.8 |
| 20260506110919 | 60 | 195 | 0.0 | 0.0 | 0.00 | 0.00 | 0.00 | 91 | 1009.8 |
| 20260506110825 | 60 | 195 | 0.0 | 0.0 | 0.00 | 0.00 | 0.00 | 91 | 1009.8 |
| 20260506110711 | 60 | 195 | 0.0 | 0.0 | 0.00 | 0.00 | 0.00 | 90 | 1009.9 |
| 20260506110624 | 60 | 195 | 0.0 | 0.0 | 0.00 | 0.00 | 0.00 | 90 | 1009.9 |
| 20260506110510 | 60 | 195 | 0.0 | 0.0 | 0.00 | 0.00 | 0.00 | 91 | 1010.0 |
| 20260506110420 | 60 | 195 | 0.0 | 0.0 | 0.00 | 0.00 | 0.00 | 90 | 1010.0 |
| 20260506110326 | 60 | 195 | 0.0 | 0.0 | 0.00 | 0.00 | 0.00 | 90 | 1010.0 |
| 20260506110239 | 60 | 195 | 0.0 | 0.0 | 0.00 | 0.00 | 0.00 | 90 | 1010.1 |
| 20260506110124 | 60 | 195 | 0.0 | 0.0 | 0.00 | 0.00 | 0.00 | 90 | 1010.0 |
| 20260506110058 | 59 | 195 | 0.0 | 0.0 | 0.00 | 0.00 | 0.00 | 90 | 1009.4 |
| 20260506110010 | 60 | 195 | 0.0 | 0.0 | 0.00 | 0.00 | 0.00 | 90 | 1009.8 |
| 20260506105916 | 60 | 195 | 0.0 | 0.0 | 0.00 | 0.00 | 0.00 | 90 | 1009.8 |
| 20260506105826 | 60 | 195 | 0.0 | 0.0 | 0.00 | 0.00 | 0.00 | 90 | 1009.8 |
| 20260506105712 | 60 | 195 | 0.0 | 0.0 | 0.00 | 0.00 | 0.00 | 90 | 1010.0 |
| 20260506105625 | 60 | 195 | 0.0 | 0.0 | 0.00 | 0.00 | 0.00 | 90 | 1010.0 |
| 20260506105511 | 60 | 195 | 0.0 | 0.0 | 0.00 | 0.00 | 0.00 | 90 | 1010.0 |
| 20260506105417 | 60 | 195 | 0.0 | 0.0 | 0.00 | 0.00 | 0.00 | 90 | 1010.0 |
| 20260506105350 | 60 | 195 | 0.0 | 0.0 | 0.00 | 0.00 | 0.00 | 90 | 1009.9 |
| 20260506105120 | 60 | 195 | 0.0 | 0.0 | 0.00 | 0.00 | 0.00 | 90 | 1009.9 |
| 20260506105026 | 60 | 195 | 0.0 | 0.0 | 0.00 | 0.00 | 0.00 | 90 | 1009.9 |
| 20260506104912 | 60 | 195 | 0.0 | 0.0 | 0.00 | 0.00 | 0.00 | 90 | 1009.8 |
| 20260506104825 | 60 | 195 | 0.0 | 0.0 | 0.00 | 0.00 | 0.00 | 90 | 1009.8 |
| 20260506104711 | 60 | 195 | 0.0 | 0.0 | 0.00 | 0.00 | 0.00 | 90 | 1009.7 |
| 20260506104622 | 60 | 195 | 0.0 | 0.0 | 0.00 | 0.00 | 0.00 | 90 | 1009.7 |
| 20260506104556 | 60 | 195 | 0.0 | 0.0 | 0.00 | 0.00 | 0.00 | 90 | 1009.2 |
| 20260506104528 | 60 | 195 | 0.0 | 0.0 | 0.00 | 0.00 | 0.00 | 90 | 1009.7 |
| 20260506104414 | 60 | 195 | 0.0 | 0.0 | 0.00 | 0.00 | 0.00 | 89 | 1009.7 |
| 20260506104320 | 60 | 195 | 0.0 | 0.0 | 0.00 | 0.00 | 0.00 | 90 | 1009.7 |
| 20260506104233 | 60 | 195 | 0.0 | 0.0 | 0.00 | 0.00 | 0.00 | 90 | 1009.8 |
| 20260506104139 | 60 | 195 | 0.0 | 0.0 | 0.00 | 0.00 | 0.00 | 89 | 1009.7 |
| 20260506104028 | 60 | 195 | 0.0 | 0.0 | 0.00 | 0.00 | 0.00 | 89 | 1009.7 |
| 20260506103913 | 60 | 195 | 0.0 | 0.0 | 0.00 | 0.00 | 0.00 | 89 | 1009.7 |
| 20260506103826 | 60 | 195 | 0.0 | 0.0 | 0.00 | 0.00 | 0.00 | 89 | 1009.7 |
| 20260506103733 | 60 | 195 | 0.0 | 0.0 | 0.00 | 0.00 | 0.00 | 89 | 1009.8 |
| 20260506103618 | 60 | 195 | 0.0 | 0.0 | 0.00 | 0.00 | 0.00 | 89 | 1009.8 |
| 20260506103531 | 60 | 195 | 0.0 | 0.0 | 0.00 | 0.00 | 0.00 | 89 | 1009.8 |
| 20260506103420 | 60 | 195 | 0.0 | 0.0 | 0.00 | 0.00 | 0.00 | 88 | 1009.8 |
| 20260506103327 | 60 | 195 | 0.0 | 0.0 | 0.00 | 0.00 | 0.00 | 88 | 1009.8 |
| 20260506103212 | 60 | 195 | 0.0 | 0.0 | 0.00 | 0.00 | 0.00 | 88 | 1009.8 |
| 20260506103118 | 60 | 195 | 0.0 | 0.0 | 0.00 | 0.00 | 0.00 | 88 | 1009.8 |
| 20260506103042 | 59 | 195 | 0.0 | 0.0 | 0.00 | 0.00 | 0.00 | 88 | 1009.3 |
| 20260506103025 | 60 | 195 | 0.0 | 0.0 | 0.00 | 0.00 | 0.00 | 88 | 1009.8 |
| 20260506102915 | 59 | 195 | 0.0 | 0.0 | 0.00 | 0.00 | 0.00 | 88 | 1009.8 |
| 20260506102848 | 60 | 195 | 0.0 | 0.0 | 0.00 | 0.00 | 0.00 | 88 | 1009.8 |
| 20260506102712 | 60 | 195 | 0.0 | 0.0 | 0.00 | 0.00 | 0.00 | 88 | 1009.8 |
| 20260506102614 | 60 | 195 | 0.0 | 0.0 | 0.00 | 0.00 | 0.00 | 88 | 1009.8 |
| 20260506102529 | 60 | 195 | 0.0 | 0.0 | 0.00 | 0.00 | 0.00 | 88 | 1009.8 |
| 20260506102430 | 60 | 195 | 0.0 | 0.0 | 0.00 | 0.00 | 0.00 | 88 | 1009.8 |
| 20260506102336 | 60 | 195 | 0.0 | 0.0 | 0.00 | 0.00 | 0.00 | 88 | 1009.8 |
| 20260506102221 | 60 | 195 | 0.0 | 0.0 | 0.00 | 0.00 | 0.00 | 88 | 1009.8 |
| 20260506102134 | 60 | 195 | 0.0 | 0.0 | 0.00 | 0.00 | 0.00 | 88 | 1009.8 |
| 20260506102021 | 59 | 195 | 0.0 | 0.0 | 0.00 | 0.00 | 0.00 | 88 | 1009.8 |
| 20260506101926 | 60 | 195 | 0.0 | 0.0 | 0.00 | 0.00 | 0.00 | 88 | 1009.8 |
| 20260506101812 | 60 | 195 | 0.0 | 0.0 | 0.00 | 0.00 | 0.00 | 88 | 1009.8 |
| 20260506101722 | 59 | 195 | 0.0 | 0.0 | 0.00 | 0.00 | 0.00 | 88 | 1009.8 |
| 20260506101635 | 59 | 195 | 0.0 | 0.0 | 0.00 | 0.00 | 0.00 | 88 | 1009.7 |
| 20260506101626 | 59 | 195 | 0.0 | 0.0 | 0.00 | 0.00 | 0.00 | 88 | 1009.2 |
| 20260506101541 | 59 | 195 | 0.0 | 0.0 | 0.00 | 0.00 | 0.00 | 88 | 1009.8 |
| 20260506101426 | 59 | 195 | 0.0 | 0.0 | 0.00 | 0.00 | 0.00 | 88 | 1009.7 |
| 20260506101312 | 59 | 195 | 0.0 | 0.0 | 0.00 | 0.00 | 0.00 | 88 | 1009.7 |
| 20260506101218 | 59 | 195 | 0.0 | 0.0 | 0.00 | 0.00 | 0.00 | 88 | 1009.7 |
| 20260506101135 | 59 | 195 | 0.0 | 0.0 | 0.00 | 0.00 | 0.00 | 88 | 1009.6 |
| 20260506101021 | 59 | 195 | 0.0 | 0.0 | 0.00 | 0.00 | 0.00 | 88 | 1009.7 |
| 20260506100947 | 59 | 195 | 0.0 | 0.0 | 0.00 | 0.00 | 0.00 | 88 | 1009.7 |
| 20260506100812 | 59 | 65 | 0.0 | 0.0 | 0.00 | 0.00 | 0.00 | 88 | 1009.8 |
| 20260506100745 | 59 | 65 | 0.0 | 0.0 | 0.00 | 0.00 | 0.00 | 88 | 1009.8 |
| 20260506100610 | 59 | 65 | 0.0 | 0.0 | 0.00 | 0.00 | 0.00 | 89 | 1009.8 |
| 20260506100520 | 59 | 65 | 0.0 | 0.0 | 0.00 | 0.00 | 0.00 | 89 | 1009.8 |
| 20260506100453 | 59 | 65 | 0.0 | 0.0 | 0.00 | 0.00 | 0.00 | 88 | 1009.8 |
| 20260506100318 | 59 | 65 | 0.0 | 0.0 | 0.00 | 0.00 | 0.00 | 88 | 1009.7 |
| 20260506100224 | 59 | 65 | 0.0 | 0.0 | 0.00 | 0.00 | 0.00 | 89 | 1009.8 |
| 20260506100130 | 59 | 65 | 0.0 | 0.0 | 0.00 | 0.00 | 0.00 | 89 | 1009.7 |
| 20260506100022 | 59 | 65 | 0.0 | 0.0 | 0.00 | 0.00 | 0.00 | 89 | 1009.7 |
| 20260506100016 | 58 | 65 | 0.0 | 0.0 | 0.00 | 0.00 | 0.00 | 89 | 1009.2 |
| 20260506095912 | 59 | 65 | 0.0 | 0.0 | 0.00 | 0.00 | 0.00 | 88 | 1009.8 |
| 20260506095713 | 59 | 65 | 0.0 | 0.0 | 0.00 | 0.00 | 0.00 | 89 | 1009.8 |
| 20260506095627 | 59 | 65 | 0.0 | 0.0 | 0.00 | 0.00 | 0.00 | 89 | 1009.8 |
| 20260506095532 | 59 | 65 | 0.0 | 0.0 | 0.00 | 0.00 | 0.00 | 89 | 1009.8 |
| 20260506095438 | 59 | 65 | 0.0 | 0.0 | 0.00 | 0.00 | 0.00 | 89 | 1009.8 |
| 20260506095350 | 59 | 65 | 0.0 | 0.0 | 0.00 | 0.00 | 0.00 | 89 | 1009.7 |
| 20260506095239 | 59 | 65 | 0.0 | 0.0 | 0.00 | 0.00 | 0.00 | 89 | 1009.7 |
| 20260506095124 | 59 | 65 | 0.0 | 0.0 | 0.00 | 0.00 | 0.00 | 89 | 1009.7 |
| 20260506095037 | 59 | 65 | 0.0 | 0.0 | 0.00 | 0.00 | 0.00 | 89 | 1009.7 |
| 20260506094922 | 58 | 65 | 0.0 | 0.0 | 0.00 | 0.00 | 0.00 | 89 | 1009.7 |
| 20260506094855 | 58 | 65 | 0.0 | 0.0 | 0.00 | 0.00 | 0.00 | 89 | 1009.7 |
| 20260506094720 | 58 | 65 | 0.0 | 0.0 | 0.00 | 0.00 | 0.00 | 89 | 1009.7 |
| 20260506094609 | 58 | 65 | 0.0 | 0.0 | 0.00 | 0.00 | 0.00 | 89 | 1009.7 |
| 20260506094605 | 58 | 65 | 0.0 | 0.0 | 0.00 | 0.00 | 0.00 | 89 | 1009.2 |
| 20260506094516 | 58 | 65 | 0.0 | 0.0 | 0.00 | 0.00 | 0.00 | 89 | 1009.7 |
| 20260506094421 | 58 | 65 | 0.0 | 0.0 | 0.00 | 0.00 | 0.00 | 90 | 1009.7 |
| 20260506094328 | 58 | 65 | 0.0 | 0.0 | 0.00 | 0.00 | 0.00 | 89 | 1009.7 |
| 20260506094214 | 58 | 65 | 0.0 | 0.0 | 0.00 | 0.00 | 0.00 | 89 | 1009.7 |
| 20260506094127 | 58 | 65 | 0.0 | 0.0 | 0.00 | 0.00 | 0.00 | 89 | 1009.7 |
| 20260506094016 | 58 | 65 | 0.0 | 0.0 | 0.00 | 0.00 | 0.00 | 89 | 1009.7 |
| 20260506093923 | 58 | 65 | 0.0 | 0.0 | 0.00 | 0.00 | 0.00 | 89 | 1009.7 |
| 20260506093829 | 58 | 65 | 0.0 | 0.0 | 0.00 | 0.00 | 0.00 | 90 | 1009.7 |
| 20260506093715 | 58 | 65 | 0.0 | 0.0 | 0.00 | 0.00 | 0.00 | 90 | 1009.7 |
| 20260506093621 | 58 | 65 | 0.0 | 0.0 | 0.00 | 0.00 | 0.00 | 90 | 1009.7 |
| 20260506093510 | 58 | 65 | 0.0 | 0.0 | 0.00 | 0.00 | 0.00 | 90 | 1009.8 |
| 20260506093443 | 58 | 65 | 0.0 | 0.0 | 0.00 | 0.00 | 0.00 | 90 | 1009.8 |
| 20260506093328 | 58 | 65 | 0.0 | 0.0 | 0.00 | 0.00 | 0.00 | 90 | 1009.8 |
| 20260506093242 | 57 | 65 | 0.0 | 0.0 | 0.00 | 0.00 | 0.00 | 90 | 1009.8 |
| 20260506093126 | 57 | 65 | 0.0 | 0.0 | 0.00 | 0.00 | 0.00 | 90 | 1009.8 |
| 20260506093053 | 57 | 65 | 0.0 | 0.0 | 0.00 | 0.00 | 0.00 | 90 | 1009.3 |
| 20260506093012 | 57 | 65 | 0.0 | 0.0 | 0.00 | 0.00 | 0.00 | 90 | 1009.8 |
| 20260506092922 | 57 | 65 | 0.0 | 0.0 | 0.00 | 0.00 | 0.00 | 90 | 1009.8 |
| 20260506092835 | 57 | 57 | 0.0 | 0.0 | 0.00 | 0.00 | 0.00 | 90 | 1009.8 |
| 20260506092714 | 57 | 129 | 0.0 | 0.0 | 0.00 | 0.00 | 0.00 | 90 | 1009.8 |
| 20260506092647 | 57 | 129 | 0.0 | 0.0 | 0.00 | 0.00 | 0.00 | 91 | 1009.8 |
| 20260506092512 | 57 | 129 | 0.0 | 0.0 | 0.00 | 0.00 | 0.00 | 91 | 1009.8 |
| 20260506092418 | 57 | 129 | 0.0 | 0.0 | 0.00 | 0.00 | 0.00 | 91 | 1009.8 |
| 20260506092335 | 57 | 129 | 0.0 | 0.0 | 0.00 | 0.00 | 0.00 | 91 | 1009.8 |
| 20260506092221 | 56 | 129 | 0.0 | 0.0 | 0.00 | 0.00 | 0.00 | 91 | 1009.8 |
| 20260506092127 | 56 | 129 | 0.0 | 0.0 | 0.00 | 0.00 | 0.00 | 91 | 1009.8 |
| 20260506092013 | 56 | 129 | 0.0 | 0.0 | 0.00 | 0.00 | 0.00 | 91 | 1009.8 |
| 20260506091919 | 56 | 129 | 0.0 | 0.0 | 0.00 | 0.00 | 0.00 | 91 | 1009.8 |
| 20260506091809 | 56 | 129 | 0.0 | 0.0 | 0.00 | 0.00 | 0.00 | 91 | 1009.7 |
| 20260506091715 | 56 | 130 | 0.0 | 0.0 | 0.00 | 0.00 | 0.00 | 90 | 1009.8 |
| 20260506091628 | 56 | 167 | 0.0 | 0.0 | 0.00 | 0.00 | 0.00 | 90 | 1009.8 |
| 20260506091608 | 55 | 167 | 0.0 | 0.0 | 0.00 | 0.00 | 0.00 | 90 | 1009.3 |
| 20260506091514 | 55 | 167 | 0.0 | 0.0 | 0.00 | 0.00 | 0.00 | 90 | 1009.7 |
| 20260506091420 | 55 | 167 | 0.0 | 0.0 | 0.00 | 0.00 | 0.00 | 90 | 1009.7 |
| 20260506091326 | 55 | 167 | 0.0 | 0.0 | 0.00 | 0.00 | 0.00 | 90 | 1009.7 |
| 20260506091216 | 55 | 167 | 0.0 | 0.0 | 0.00 | 0.00 | 0.00 | 90 | 1009.7 |
| 20260506091129 | 55 | 167 | 0.0 | 0.0 | 0.00 | 0.00 | 0.00 | 90 | 1009.7 |
| 20260506091035 | 55 | 167 | 0.0 | 0.0 | 0.00 | 0.00 | 0.00 | 90 | 1009.7 |
| 20260506090921 | 55 | 167 | 0.0 | 0.0 | 0.00 | 0.00 | 0.00 | 90 | 1009.8 |
| 20260506090827 | 55 | 167 | 0.0 | 0.0 | 0.00 | 0.00 | 0.00 | 90 | 1009.8 |
| 20260506090717 | 55 | 167 | 0.0 | 0.0 | 0.00 | 0.00 | 0.00 | 90 | 1009.8 |
| 20260506090623 | 55 | 167 | 0.0 | 0.0 | 0.00 | 0.00 | 0.00 | 90 | 1009.9 |
| 20260506090509 | 55 | 167 | 0.0 | 0.0 | 0.00 | 0.00 | 0.00 | 90 | 1009.8 |
| 20260506090422 | 55 | 167 | 0.0 | 0.0 | 0.00 | 0.00 | 0.00 | 90 | 1009.8 |
| 20260506090328 | 55 | 167 | 0.0 | 0.0 | 0.00 | 0.00 | 0.00 | 90 | 1009.8 |
| 20260506090214 | 54 | 167 | 0.0 | 0.0 | 0.00 | 0.00 | 0.00 | 90 | 1009.9 |
| 20260506090124 | 54 | 167 | 0.0 | 0.0 | 0.00 | 0.00 | 0.00 | 90 | 1009.9 |
| 20260506090043 | 54 | 167 | 0.0 | 0.0 | 0.00 | 0.00 | 0.00 | 90 | 1009.5 |
| 20260506090010 | 54 | 167 | 0.0 | 0.0 | 0.00 | 0.00 | 0.00 | 90 | 1009.9 |
| 20260506085917 | 54 | 167 | 0.0 | 0.0 | 0.00 | 0.00 | 0.00 | 90 | 1009.9 |
| 20260506085830 | 54 | 167 | 0.0 | 0.0 | 0.00 | 0.00 | 0.00 | 90 | 1010.0 |
| 20260506085716 | 54 | 167 | 0.0 | 0.0 | 0.00 | 0.00 | 0.00 | 90 | 1009.9 |
| 20260506085642 | 54 | 167 | 0.0 | 0.0 | 0.00 | 0.00 | 0.00 | 90 | 1009.9 |
| 20260506085511 | 54 | 167 | 0.0 | 0.0 | 0.00 | 0.00 | 0.00 | 90 | 1010.0 |
| 20260506085424 | 54 | 167 | 0.0 | 0.0 | 0.00 | 0.00 | 0.00 | 90 | 1010.0 |
| 20260506085330 | 54 | 167 | 0.0 | 0.0 | 0.00 | 0.00 | 0.00 | 90 | 1010.0 |
| 20260506085216 | 54 | 167 | 0.0 | 0.0 | 0.00 | 0.00 | 0.00 | 90 | 1010.0 |
| 20260506085142 | 54 | 167 | 0.0 | 0.0 | 0.00 | 0.00 | 0.00 | 90 | 1010.0 |
| 20260506085011 | 54 | 167 | 0.0 | 0.0 | 0.00 | 0.00 | 0.00 | 90 | 1010.0 |
| 20260506084923 | 54 | 167 | 0.0 | 0.0 | 0.00 | 0.00 | 0.00 | 90 | 1010.0 |
| 20260506084809 | 54 | 167 | 0.0 | 0.0 | 0.00 | 0.00 | 0.00 | 90 | 1009.9 |
| 20260506084736 | 54 | 167 | 0.0 | 0.0 | 0.00 | 0.00 | 0.00 | 90 | 1009.9 |
| 20260506084627 | 54 | 167 | 0.0 | 0.0 | 0.00 | 0.00 | 0.00 | 90 | 1009.9 |
| 20260506084533 | 54 | 167 | 0.0 | 0.0 | 0.00 | 0.00 | 0.00 | 90 | 1009.9 |
| 20260506084508 | 53 | 167 | 0.0 | 0.0 | 0.00 | 0.00 | 0.00 | 90 | 1009.4 |
| 20260506084424 | 54 | 167 | 0.0 | 0.0 | 0.00 | 0.00 | 0.00 | 90 | 1009.9 |
| 20260506084310 | 54 | 167 | 0.0 | 0.0 | 0.00 | 0.00 | 0.00 | 90 | 1009.9 |
| 20260506084216 | 54 | 167 | 0.0 | 0.0 | 0.00 | 0.00 | 0.00 | 90 | 1010.0 |
| 20260506084121 | 54 | 167 | 0.0 | 0.0 | 0.00 | 0.00 | 0.00 | 90 | 1010.0 |
| 20260506084034 | 54 | 167 | 0.0 | 0.0 | 0.00 | 0.00 | 0.00 | 90 | 1010.0 |
| 20260506083920 | 54 | 167 | 0.0 | 0.0 | 0.00 | 0.00 | 0.00 | 90 | 1010.0 |
| 20260506083811 | 53 | 167 | 0.0 | 0.0 | 0.00 | 0.00 | 0.00 | 90 | 1009.9 |
| 20260506083716 | 53 | 167 | 0.0 | 0.0 | 0.00 | 0.00 | 0.00 | 90 | 1009.9 |
| 20260506083649 | 53 | 167 | 0.0 | 0.0 | 0.00 | 0.00 | 0.00 | 90 | 1010.0 |
| 20260506083534 | 53 | 167 | 0.0 | 0.0 | 0.00 | 0.00 | 0.00 | 90 | 1010.0 |
| 20260506083420 | 53 | 167 | 0.0 | 0.0 | 0.00 | 0.00 | 0.00 | 90 | 1010.0 |
| 20260506083310 | 53 | 167 | 0.0 | 0.0 | 0.00 | 0.00 | 0.00 | 90 | 1010.0 |
| 20260506083216 | 53 | 167 | 0.0 | 0.0 | 0.00 | 0.00 | 0.00 | 90 | 1010.0 |
| 20260506083122 | 53 | 167 | 0.0 | 0.0 | 0.00 | 0.00 | 0.00 | 90 | 1010.0 |
| 20260506083035 | 53 | 167 | 0.0 | 0.0 | 0.00 | 0.00 | 0.00 | 90 | 1010.0 |
| 20260506083029 | 53 | 167 | 0.0 | 0.0 | 0.00 | 0.00 | 0.00 | 90 | 1009.6 |
| 20260506082922 | 53 | 167 | 0.0 | 0.0 | 0.00 | 0.00 | 0.00 | 90 | 1010.0 |
| 20260506082847 | 53 | 167 | 0.0 | 0.0 | 0.00 | 0.00 | 0.00 | 90 | 1010.0 |
| 20260506082716 | 53 | 167 | 0.0 | 0.0 | 0.00 | 0.00 | 0.00 | 91 | 1010.0 |
| 20260506082622 | 53 | 167 | 0.0 | 0.0 | 0.00 | 0.00 | 0.00 | 91 | 1010.0 |
| 20260506082535 | 53 | 167 | 0.0 | 0.0 | 0.00 | 0.00 | 0.00 | 91 | 1010.1 |
| 20260506082420 | 53 | 167 | 0.0 | 0.0 | 0.00 | 0.00 | 0.00 | 91 | 1010.1 |
| 20260506082326 | 53 | 167 | 0.0 | 0.0 | 0.00 | 0.00 | 0.00 | 91 | 1010.0 |
| 20260506082212 | 53 | 167 | 0.0 | 0.0 | 0.00 | 0.00 | 0.00 | 91 | 1009.9 |
| 20260506082129 | 53 | 167 | 0.0 | 0.0 | 0.00 | 0.00 | 0.00 | 91 | 1009.9 |
| 20260506082015 | 53 | 167 | 0.0 | 0.0 | 0.00 | 0.00 | 0.00 | 91 | 1009.9 |
| 20260506081921 | 53 | 167 | 0.0 | 0.0 | 0.00 | 0.00 | 0.00 | 91 | 1009.9 |
| 20260506081827 | 53 | 167 | 0.0 | 0.0 | 0.00 | 0.00 | 0.00 | 91 | 1010.0 |
| 20260506081713 | 53 | 167 | 0.0 | 0.0 | 0.00 | 0.00 | 0.00 | 91 | 1010.0 |
| 20260506081619 | 53 | 167 | 0.0 | 0.0 | 0.00 | 0.00 | 0.00 | 91 | 1010.0 |
| 20260506081524 | 52 | 167 | 0.0 | 0.0 | 0.00 | 0.00 | 0.00 | 91 | 1009.6 |
| 20260506081509 | 53 | 167 | 0.0 | 0.0 | 0.00 | 0.00 | 0.00 | 91 | 1010.1 |
| 20260506081442 | 53 | 167 | 0.0 | 0.0 | 0.00 | 0.00 | 0.00 | 91 | 1010.1 |
| 20260506081354 | 53 | 167 | 0.0 | 0.0 | 0.00 | 0.00 | 0.00 | 91 | 1010.0 |
| 20260506081219 | 53 | 167 | 0.0 | 0.0 | 0.00 | 0.00 | 0.00 | 91 | 1010.0 |
| 20260506081125 | 53 | 167 | 0.0 | 0.0 | 0.00 | 0.00 | 0.00 | 91 | 1010.0 |
| 20260506081010 | 53 | 167 | 0.0 | 0.0 | 0.00 | 0.00 | 0.00 | 91 | 1010.1 |
| 20260506080921 | 53 | 167 | 0.0 | 0.0 | 0.00 | 0.00 | 0.00 | 91 | 1010.1 |
| 20260506080827 | 53 | 167 | 0.0 | 0.0 | 0.00 | 0.00 | 0.00 | 91 | 1010.0 |
| 20260506080713 | 53 | 167 | 0.0 | 0.0 | 0.00 | 0.00 | 0.00 | 91 | 1010.0 |
| 20260506080646 | 53 | 167 | 0.0 | 0.0 | 0.00 | 0.00 | 0.00 | 91 | 1010.0 |
| 20260506080512 | 52 | 167 | 0.0 | 0.0 | 0.00 | 0.00 | 0.00 | 91 | 1010.0 |
| 20260506080417 | 52 | 167 | 0.0 | 0.0 | 0.00 | 0.00 | 0.00 | 91 | 1010.0 |
| 20260506080335 | 52 | 167 | 0.0 | 0.0 | 0.00 | 0.00 | 0.00 | 91 | 1010.1 |
| 20260506080221 | 52 | 167 | 0.0 | 0.0 | 0.00 | 0.00 | 0.00 | 91 | 1010.1 |
| 20260506080126 | 52 | 167 | 0.0 | 0.0 | 0.00 | 0.00 | 0.00 | 91 | 1010.1 |
| 20260506073514 | 52 | 167 | 0.0 | 0.0 | 0.00 | 0.00 | 0.00 | 91 | 1010.3 |
| 20260506073427 | 51 | 167 | 0.0 | 0.0 | 0.00 | 0.00 | 0.00 | 91 | 1010.3 |
| 20260506073333 | 51 | 167 | 0.0 | 0.0 | 0.00 | 0.00 | 0.00 | 91 | 1010.2 |
| 20260506073219 | 51 | 167 | 0.0 | 0.0 | 0.00 | 0.00 | 0.00 | 91 | 1010.3 |
| 20260506073125 | 51 | 167 | 0.0 | 0.0 | 0.00 | 0.00 | 0.00 | 91 | 1010.2 |
| 20260506073050 | 51 | 167 | 0.0 | 0.0 | 0.00 | 0.00 | 0.00 | 91 | 1009.8 |
| 20260506073011 | 51 | 167 | 0.0 | 0.0 | 0.00 | 0.00 | 0.00 | 91 | 1010.3 |
| 20260506072921 | 51 | 167 | 0.0 | 0.0 | 0.00 | 0.00 | 0.00 | 91 | 1010.3 |
| 20260506072834 | 51 | 167 | 0.0 | 0.0 | 0.00 | 0.00 | 0.00 | 91 | 1010.2 |
| 20260506072720 | 51 | 167 | 0.0 | 0.0 | 0.00 | 0.00 | 0.00 | 91 | 1010.2 |
| 20260506072626 | 51 | 167 | 0.0 | 0.0 | 0.00 | 0.00 | 0.00 | 91 | 1010.2 |
| 20260506072532 | 51 | 167 | 0.0 | 0.0 | 0.00 | 0.00 | 0.00 | 91 | 1010.1 |
| 20260506072417 | 51 | 167 | 0.0 | 0.0 | 0.00 | 0.00 | 0.00 | 91 | 1010.1 |
| 20260506072334 | 51 | 167 | 0.0 | 0.0 | 0.00 | 0.00 | 0.00 | 91 | 1010.1 |
| 20260506072219 | 51 | 167 | 0.0 | 0.0 | 0.00 | 0.00 | 0.00 | 91 | 1010.1 |
| 20260506072152 | 51 | 167 | 0.0 | 0.0 | 0.00 | 0.00 | 0.00 | 91 | 1010.1 |
| 20260506072017 | 51 | 167 | 0.0 | 0.0 | 0.00 | 0.00 | 0.00 | 91 | 1010.2 |
| 20260506071923 | 51 | 167 | 0.0 | 0.0 | 0.00 | 0.00 | 0.00 | 91 | 1010.1 |
| 20260506071856 | 51 | 167 | 0.0 | 0.0 | 0.00 | 0.00 | 0.00 | 91 | 1010.1 |
| 20260506071725 | 51 | 167 | 0.0 | 0.0 | 0.00 | 0.00 | 0.00 | 91 | 1010.1 |
| 20260506071611 | 51 | 167 | 0.0 | 0.0 | 0.00 | 0.00 | 0.00 | 91 | 1010.2 |
| 20260506071601 | 51 | 167 | 0.0 | 0.0 | 0.00 | 0.00 | 0.00 | 91 | 1009.7 |
| 20260506071517 | 51 | 167 | 0.0 | 0.0 | 0.00 | 0.00 | 0.00 | 91 | 1010.2 |
| 20260506071423 | 51 | 167 | 0.0 | 0.0 | 0.00 | 0.00 | 0.00 | 91 | 1010.2 |
| 20260506071328 | 51 | 167 | 0.0 | 0.0 | 0.00 | 0.00 | 0.00 | 91 | 1010.2 |
| 20260506071215 | 51 | 167 | 0.0 | 0.0 | 0.00 | 0.00 | 0.00 | 91 | 1010.2 |
| 20260506071131 | 51 | 167 | 0.0 | 0.0 | 0.00 | 0.00 | 0.00 | 91 | 1010.2 |
| 20260506071017 | 51 | 167 | 0.0 | 0.0 | 0.00 | 0.00 | 0.00 | 91 | 1010.2 |
| 20260506070923 | 51 | 167 | 0.0 | 0.0 | 0.00 | 0.00 | 0.00 | 91 | 1010.2 |
| 20260506070856 | 51 | 167 | 0.0 | 0.0 | 0.00 | 0.00 | 0.00 | 91 | 1010.2 |
| 20260506070722 | 51 | 167 | 0.0 | 0.0 | 0.00 | 0.00 | 0.00 | 91 | 1010.2 |
| 20260506070611 | 51 | 167 | 0.0 | 0.0 | 0.00 | 0.00 | 0.00 | 91 | 1010.2 |
| 20260506070517 | 51 | 167 | 0.0 | 0.0 | 0.00 | 0.00 | 0.00 | 91 | 1010.2 |
| 20260506070423 | 51 | 167 | 0.0 | 0.0 | 0.00 | 0.00 | 0.00 | 91 | 1010.2 |
| 20260506070309 | 51 | 167 | 0.0 | 0.0 | 0.00 | 0.00 | 0.00 | 91 | 1010.2 |
| 20260506070216 | 51 | 167 | 0.0 | 0.0 | 0.00 | 0.00 | 0.00 | 91 | 1010.3 |
| 20260506070128 | 51 | 167 | 0.0 | 0.0 | 0.00 | 0.00 | 0.00 | 91 | 1010.3 |
| 20260506062514 | 51 | 167 | 0.0 | 0.0 | 0.00 | 0.00 | 0.00 | 90 | 1010.8 |
| 20260506062427 | 51 | 167 | 0.0 | 0.0 | 0.00 | 0.00 | 0.00 | 90 | 1010.8 |
| 20260506062333 | 51 | 167 | 0.0 | 0.0 | 0.00 | 0.00 | 0.00 | 90 | 1010.9 |
| 20260506062218 | 51 | 167 | 0.0 | 0.0 | 0.00 | 0.00 | 0.00 | 90 | 1010.9 |
| 20260506062151 | 51 | 167 | 0.0 | 0.0 | 0.00 | 0.00 | 0.00 | 90 | 1010.8 |
| 20260506062016 | 51 | 167 | 0.0 | 0.0 | 0.00 | 0.00 | 0.00 | 90 | 1010.8 |
| 20260506061926 | 51 | 167 | 0.0 | 0.0 | 0.00 | 0.00 | 0.00 | 90 | 1010.8 |
| 20260506061812 | 51 | 167 | 0.0 | 0.0 | 0.00 | 0.00 | 0.00 | 90 | 1010.8 |
| 20260506061718 | 51 | 167 | 0.0 | 0.0 | 0.00 | 0.00 | 0.00 | 90 | 1010.8 |
| 20260506061631 | 51 | 167 | 0.0 | 0.0 | 0.00 | 0.00 | 0.00 | 90 | 1010.8 |
| 20260506061555 | 50 | 167 | 0.0 | 0.0 | 0.00 | 0.00 | 0.00 | 90 | 1010.4 |
| 20260506061536 | 51 | 167 | 0.0 | 0.0 | 0.00 | 0.00 | 0.00 | 90 | 1010.8 |
| 20260506061428 | 51 | 167 | 0.0 | 0.0 | 0.00 | 0.00 | 0.00 | 90 | 1010.8 |
| 20260506061318 | 51 | 167 | 0.0 | 0.0 | 0.00 | 0.00 | 0.00 | 90 | 1010.8 |
| 20260506061224 | 51 | 167 | 0.0 | 0.0 | 0.00 | 0.00 | 0.00 | 90 | 1010.8 |
| 20260506061110 | 51 | 167 | 0.0 | 0.0 | 0.00 | 0.00 | 0.00 | 90 | 1010.8 |
| 20260506061016 | 51 | 167 | 0.0 | 0.0 | 0.00 | 0.00 | 0.00 | 90 | 1010.9 |
| 20260506060922 | 51 | 167 | 0.0 | 0.0 | 0.00 | 0.00 | 0.00 | 90 | 1010.9 |
| 20260506060835 | 51 | 167 | 0.0 | 0.0 | 0.00 | 0.00 | 0.00 | 90 | 1010.8 |
| 20260506060745 | 51 | 167 | 0.0 | 0.0 | 0.00 | 0.00 | 0.00 | 90 | 1010.8 |
| 20260506060630 | 51 | 167 | 0.0 | 0.0 | 0.00 | 0.00 | 0.00 | 90 | 1010.9 |
| 20260506060522 | 51 | 167 | 0.0 | 0.0 | 0.00 | 0.00 | 0.00 | 90 | 1010.9 |
| 20260506060428 | 51 | 167 | 0.0 | 0.0 | 0.00 | 0.00 | 0.00 | 90 | 1010.9 |
| 20260506060314 | 51 | 167 | 0.0 | 0.0 | 0.00 | 0.00 | 0.00 | 90 | 1010.9 |
| 20260506060220 | 51 | 167 | 0.0 | 0.0 | 0.00 | 0.00 | 0.00 | 90 | 1010.9 |
| 20260506060110 | 51 | 167 | 0.0 | 0.0 | 0.00 | 0.00 | 0.00 | 91 | 1010.9 |
| 20260506051313 | 52 | 167 | 0.0 | 0.0 | 0.00 | 0.00 | 0.00 | 89 | 1011.1 |
| 20260506051219 | 52 | 167 | 0.0 | 0.0 | 0.00 | 0.00 | 0.00 | 89 | 1011.1 |
| 20260506051132 | 52 | 167 | 0.0 | 0.0 | 0.00 | 0.00 | 0.00 | 89 | 1011.1 |
| 20260506051018 | 52 | 167 | 0.0 | 0.0 | 0.00 | 0.00 | 0.00 | 89 | 1011.1 |
| 20260506050924 | 52 | 167 | 0.0 | 0.0 | 0.00 | 0.00 | 0.00 | 89 | 1011.1 |
| 20260506050815 | 52 | 167 | 0.0 | 0.0 | 0.00 | 0.00 | 0.00 | 89 | 1011.1 |
| 20260506050721 | 52 | 167 | 0.0 | 0.0 | 0.00 | 0.00 | 0.00 | 89 | 1011.1 |
| 20260506050627 | 52 | 167 | 0.0 | 0.0 | 0.00 | 0.00 | 0.00 | 89 | 1011.1 |
| 20260506050513 | 52 | 167 | 0.0 | 0.0 | 0.00 | 0.00 | 0.00 | 89 | 1011.1 |
| 20260506050425 | 52 | 167 | 0.0 | 0.0 | 0.00 | 0.00 | 0.00 | 88 | 1011.1 |
| 20260506050315 | 52 | 167 | 0.0 | 0.0 | 0.00 | 0.00 | 0.00 | 88 | 1011.1 |
| 20260506050221 | 52 | 167 | 0.0 | 0.0 | 0.00 | 0.00 | 0.00 | 88 | 1011.1 |
| 20260506050127 | 52 | 167 | 0.0 | 0.0 | 0.00 | 0.00 | 0.00 | 88 | 1011.1 |
| 20260506045133 | 52 | 167 | 0.0 | 0.0 | 0.00 | 0.00 | 0.00 | 88 | 1011.0 |
| 20260506045013 | 52 | 167 | 0.0 | 0.0 | 0.00 | 0.00 | 0.00 | 88 | 1011.0 |
| 20260506044925 | 52 | 167 | 0.0 | 0.0 | 0.00 | 0.00 | 0.00 | 88 | 1011.0 |
| 20260506044832 | 52 | 167 | 0.0 | 0.0 | 0.00 | 0.00 | 0.00 | 88 | 1011.0 |
| 20260506044717 | 53 | 167 | 0.0 | 0.0 | 0.00 | 0.00 | 0.00 | 88 | 1011.0 |
| 20260506044630 | 53 | 167 | 0.0 | 0.0 | 0.00 | 0.00 | 0.00 | 88 | 1010.9 |
| 20260506044556 | 52 | 167 | 0.0 | 0.0 | 0.00 | 0.00 | 0.00 | 88 | 1010.5 |
| 20260506044540 | 53 | 167 | 0.0 | 0.0 | 0.00 | 0.00 | 0.00 | 88 | 1010.9 |
| 20260506044432 | 53 | 167 | 0.0 | 0.0 | 0.00 | 0.00 | 0.00 | 88 | 1011.0 |
| 20260506044318 | 53 | 167 | 0.0 | 0.0 | 0.00 | 0.00 | 0.00 | 88 | 1011.0 |
| 20260506044224 | 53 | 167 | 0.0 | 0.0 | 0.00 | 0.00 | 0.00 | 88 | 1011.0 |
| 20260506044130 | 53 | 167 | 0.0 | 0.0 | 0.00 | 0.00 | 0.00 | 88 | 1011.0 |
| 20260506044016 | 53 | 167 | 0.0 | 0.0 | 0.00 | 0.00 | 0.00 | 88 | 1011.0 |
| 20260506043933 | 53 | 167 | 0.0 | 0.0 | 0.00 | 0.00 | 0.00 | 87 | 1011.0 |
| 20260506043819 | 53 | 167 | 0.0 | 0.0 | 0.00 | 0.00 | 0.00 | 88 | 1011.0 |
| 20260506043725 | 53 | 167 | 0.0 | 0.0 | 0.00 | 0.00 | 0.00 | 88 | 1011.0 |
| 20260506043631 | 53 | 167 | 0.0 | 0.0 | 0.00 | 0.00 | 0.00 | 88 | 1010.9 |
| 20260506043523 | 53 | 167 | 0.0 | 0.0 | 0.00 | 0.00 | 0.00 | 87 | 1010.9 |
| 20260506043409 | 53 | 167 | 0.0 | 0.0 | 0.00 | 0.00 | 0.00 | 87 | 1010.9 |
| 20260506043319 | 53 | 167 | 0.0 | 0.0 | 0.00 | 0.00 | 0.00 | 88 | 1010.9 |
| 20260506043225 | 53 | 167 | 0.0 | 0.0 | 0.00 | 0.00 | 0.00 | 88 | 1010.9 |
| 20260506043111 | 53 | 167 | 0.0 | 0.0 | 0.00 | 0.00 | 0.00 | 88 | 1010.9 |
| 20260506043029 | 53 | 167 | 0.0 | 0.0 | 0.00 | 0.00 | 0.00 | 88 | 1010.5 |
| 20260506043017 | 53 | 167 | 0.0 | 0.0 | 0.00 | 0.00 | 0.00 | 88 | 1010.9 |
| 20260506042930 | 53 | 167 | 0.0 | 0.0 | 0.00 | 0.00 | 0.00 | 88 | 1010.9 |
| 20260506042815 | 53 | 167 | 0.0 | 0.0 | 0.00 | 0.00 | 0.00 | 88 | 1010.9 |
| 20260506042725 | 53 | 167 | 0.0 | 0.0 | 0.00 | 0.00 | 0.00 | 87 | 1010.9 |
| 20260506042611 | 53 | 167 | 0.0 | 0.0 | 0.00 | 0.00 | 0.00 | 87 | 1010.9 |
| 20260506042524 | 53 | 167 | 0.0 | 0.0 | 0.00 | 0.00 | 0.00 | 87 | 1010.9 |
| 20260506042430 | 53 | 167 | 0.0 | 0.0 | 0.00 | 0.00 | 0.00 | 88 | 1011.0 |
| 20260506042315 | 53 | 167 | 0.0 | 0.0 | 0.00 | 0.00 | 0.00 | 88 | 1011.0 |
| 20260506042221 | 53 | 167 | 0.0 | 0.0 | 0.00 | 0.00 | 0.00 | 88 | 1011.0 |
| 20260506042111 | 53 | 167 | 0.0 | 0.0 | 0.00 | 0.00 | 0.00 | 88 | 1011.1 |
| 20260506042044 | 53 | 167 | 0.0 | 0.0 | 0.00 | 0.00 | 0.00 | 88 | 1011.1 |
| 20260506041956 | 53 | 167 | 0.0 | 0.0 | 0.00 | 0.00 | 0.00 | 88 | 1011.0 |
| 20260506041841 | 53 | 167 | 0.0 | 0.0 | 0.00 | 0.00 | 0.00 | 88 | 1011.0 |
| 20260506041726 | 53 | 167 | 0.0 | 0.0 | 0.00 | 0.00 | 0.00 | 87 | 1011.1 |
| 20260506041612 | 53 | 167 | 0.0 | 0.0 | 0.00 | 0.00 | 0.00 | 87 | 1011.1 |
| 20260506041529 | 53 | 167 | 0.0 | 0.0 | 0.00 | 0.00 | 0.00 | 87 | 1011.1 |
| 20260506041514 | 53 | 167 | 0.0 | 0.0 | 0.00 | 0.00 | 0.00 | 88 | 1010.6 |
| 20260506041415 | 53 | 167 | 0.0 | 0.0 | 0.00 | 0.00 | 0.00 | 88 | 1011.1 |
| 20260506041321 | 53 | 167 | 0.0 | 0.0 | 0.00 | 0.00 | 0.00 | 87 | 1011.1 |
| 20260506041227 | 53 | 167 | 0.0 | 0.0 | 0.00 | 0.00 | 0.00 | 87 | 1011.1 |
| 20260506041112 | 53 | 167 | 0.0 | 0.0 | 0.00 | 0.00 | 0.00 | 87 | 1011.1 |
| 20260506041019 | 53 | 167 | 0.0 | 0.0 | 0.00 | 0.00 | 0.00 | 87 | 1011.1 |
| 20260506040909 | 53 | 167 | 0.0 | 0.0 | 0.00 | 0.00 | 0.00 | 87 | 1011.1 |
| 20260506040822 | 53 | 167 | 0.0 | 0.0 | 0.00 | 0.00 | 0.00 | 87 | 1011.1 |
| 20260506040748 | 53 | 167 | 0.0 | 0.0 | 0.00 | 0.00 | 0.00 | 87 | 1011.1 |
| 20260506040613 | 53 | 167 | 0.0 | 0.0 | 0.00 | 0.00 | 0.00 | 87 | 1011.1 |
| 20260506040525 | 53 | 167 | 0.0 | 0.0 | 0.00 | 0.00 | 0.00 | 87 | 1011.1 |
| 20260506040415 | 53 | 167 | 0.0 | 0.0 | 0.00 | 0.00 | 0.00 | 87 | 1011.1 |
| 20260506040322 | 53 | 167 | 0.0 | 0.0 | 0.00 | 0.00 | 0.00 | 87 | 1011.1 |
| 20260506040256 | 54 | 167 | 0.0 | 0.0 | 0.00 | 0.00 | 0.00 | 87 | 1011.1 |
| 20260506040139 | 54 | 167 | 0.0 | 0.0 | 0.00 | 0.00 | 0.00 | 87 | 1011.1 |
| 20260506040056 | 53 | 167 | 0.0 | 0.0 | 0.00 | 0.00 | 0.00 | 87 | 1010.6 |
| 20260506040024 | 54 | 167 | 0.0 | 0.0 | 0.00 | 0.00 | 0.00 | 87 | 1011.0 |
| 20260506035910 | 54 | 167 | 0.0 | 0.0 | 0.00 | 0.00 | 0.00 | 87 | 1011.0 |
| 20260506035817 | 54 | 167 | 0.0 | 0.0 | 0.00 | 0.00 | 0.00 | 87 | 1011.0 |
| 20260506035733 | 54 | 167 | 0.0 | 0.0 | 0.00 | 0.00 | 0.00 | 87 | 1011.0 |
| 20260506035619 | 54 | 167 | 0.0 | 0.0 | 0.00 | 0.00 | 0.00 | 87 | 1010.9 |
| 20260506035525 | 54 | 167 | 0.0 | 0.0 | 0.00 | 0.00 | 0.00 | 87 | 1011.0 |
| 20260506035411 | 54 | 167 | 0.0 | 0.0 | 0.00 | 0.00 | 0.00 | 86 | 1011.0 |
| 20260506035317 | 54 | 167 | 0.0 | 0.0 | 0.00 | 0.00 | 0.00 | 86 | 1011.0 |
| 20260506035227 | 54 | 167 | 0.0 | 0.0 | 0.00 | 0.00 | 0.00 | 86 | 1011.0 |
| 20260506035113 | 54 | 167 | 0.0 | 0.0 | 0.00 | 0.00 | 0.00 | 86 | 1010.9 |
| 20260506035026 | 54 | 167 | 0.0 | 0.0 | 0.00 | 0.00 | 0.00 | 86 | 1010.9 |
| 20260506034912 | 54 | 167 | 0.0 | 0.0 | 0.00 | 0.00 | 0.00 | 86 | 1010.9 |
| 20260506034818 | 54 | 167 | 0.0 | 0.0 | 0.00 | 0.00 | 0.00 | 86 | 1010.9 |
| 20260506034751 | 54 | 167 | 0.0 | 0.0 | 0.00 | 0.00 | 0.00 | 86 | 1010.9 |
| 20260506034620 | 54 | 167 | 0.0 | 0.0 | 0.00 | 0.00 | 0.00 | 86 | 1010.9 |
| 20260506034618 | 54 | 167 | 0.0 | 0.0 | 0.00 | 0.00 | 0.00 | 86 | 1010.5 |
| 20260506034526 | 54 | 167 | 0.0 | 0.0 | 0.00 | 0.00 | 0.00 | 86 | 1010.9 |
| 20260506034412 | 54 | 167 | 0.0 | 0.0 | 0.00 | 0.00 | 0.00 | 86 | 1010.9 |
| 20260506034318 | 54 | 167 | 0.0 | 0.0 | 0.00 | 0.00 | 0.00 | 86 | 1010.9 |
| 20260506034224 | 54 | 167 | 0.0 | 0.0 | 0.00 | 0.00 | 0.00 | 86 | 1010.9 |
| 20260506034114 | 54 | 167 | 0.0 | 0.0 | 0.00 | 0.00 | 0.00 | 86 | 1010.9 |
| 20260506034027 | 54 | 167 | 0.0 | 0.0 | 0.00 | 0.00 | 0.00 | 86 | 1010.9 |
| 20260506033913 | 55 | 167 | 0.0 | 0.0 | 0.00 | 0.00 | 0.00 | 86 | 1010.9 |
| 20260506033819 | 55 | 167 | 0.0 | 0.0 | 0.00 | 0.00 | 0.00 | 86 | 1010.9 |
| 20260506033725 | 55 | 167 | 0.0 | 0.0 | 0.00 | 0.00 | 0.00 | 86 | 1010.9 |
| 20260506033611 | 55 | 167 | 0.0 | 0.0 | 0.00 | 0.00 | 0.00 | 86 | 1010.9 |
| 20260506033521 | 55 | 167 | 0.0 | 0.0 | 0.00 | 0.00 | 0.00 | 86 | 1010.9 |
| 20260506033435 | 55 | 167 | 0.0 | 0.0 | 0.00 | 0.00 | 0.00 | 86 | 1010.9 |
| 20260506033321 | 55 | 167 | 0.0 | 0.0 | 0.00 | 0.00 | 0.00 | 86 | 1010.9 |
| 20260506033227 | 55 | 167 | 0.0 | 0.0 | 0.00 | 0.00 | 0.00 | 86 | 1010.9 |
| 20260506033133 | 55 | 167 | 0.0 | 0.0 | 0.00 | 0.00 | 0.00 | 85 | 1011.0 |
| 20260506033025 | 55 | 167 | 0.0 | 0.0 | 0.00 | 0.00 | 0.00 | 85 | 1011.0 |
| 20260506033023 | 54 | 167 | 0.0 | 0.0 | 0.00 | 0.00 | 0.00 | 85 | 1010.5 |
| 20260506032935 | 55 | 167 | 0.0 | 0.0 | 0.00 | 0.00 | 0.00 | 85 | 1011.0 |
| 20260506032847 | 55 | 167 | 0.0 | 0.0 | 0.00 | 0.00 | 0.00 | 85 | 1011.0 |
| 20260506032713 | 55 | 167 | 0.0 | 0.0 | 0.00 | 0.00 | 0.00 | 85 | 1011.0 |
| 20260506032618 | 55 | 167 | 0.0 | 0.0 | 0.00 | 0.00 | 0.00 | 85 | 1011.0 |
| 20260506032524 | 55 | 167 | 0.0 | 0.0 | 0.00 | 0.00 | 0.00 | 85 | 1011.0 |
| 20260506032410 | 55 | 167 | 0.0 | 0.0 | 0.00 | 0.00 | 0.00 | 85 | 1011.0 |
| 20260506032347 | 55 | 167 | 0.0 | 0.0 | 0.00 | 0.00 | 0.00 | 84 | 1011.0 |
| 20260506032212 | 55 | 167 | 0.0 | 0.0 | 0.00 | 0.00 | 0.00 | 85 | 1011.1 |
| 20260506032138 | 55 | 167 | 0.0 | 0.0 | 0.00 | 0.00 | 0.00 | 85 | 1011.1 |
| 20260506032030 | 55 | 167 | 0.0 | 0.0 | 0.00 | 0.00 | 0.00 | 85 | 1011.1 |
| 20260506031936 | 55 | 167 | 0.0 | 0.0 | 0.00 | 0.00 | 0.00 | 85 | 1011.1 |
| 20260506031821 | 56 | 167 | 0.0 | 0.0 | 0.00 | 0.00 | 0.00 | 85 | 1011.1 |
| 20260506031735 | 56 | 167 | 0.0 | 0.0 | 0.00 | 0.00 | 0.00 | 85 | 1011.2 |
| 20260506031623 | 56 | 167 | 0.0 | 0.0 | 0.00 | 0.00 | 0.00 | 85 | 1011.2 |
| 20260506031556 | 56 | 167 | 0.0 | 0.0 | 0.00 | 0.00 | 0.00 | 85 | 1011.1 |
| 20260506031541 | 55 | 167 | 0.0 | 0.0 | 0.00 | 0.00 | 0.00 | 85 | 1010.7 |
| 20260506031413 | 56 | 167 | 0.0 | 0.0 | 0.00 | 0.00 | 0.00 | 85 | 1011.1 |
| 20260506031327 | 56 | 167 | 0.0 | 0.0 | 0.00 | 0.00 | 0.00 | 85 | 1011.1 |
| 20260506031213 | 56 | 167 | 0.0 | 0.0 | 0.00 | 0.00 | 0.00 | 85 | 1011.1 |
| 20260506031119 | 56 | 167 | 0.0 | 0.0 | 0.00 | 0.00 | 0.00 | 85 | 1011.1 |
| 20260506031009 | 56 | 167 | 0.0 | 0.0 | 0.00 | 0.00 | 0.00 | 85 | 1011.1 |
| 20260506030915 | 56 | 167 | 0.0 | 0.0 | 0.00 | 0.00 | 0.00 | 84 | 1011.1 |
| 20260506030828 | 56 | 167 | 0.0 | 0.0 | 0.00 | 0.00 | 0.00 | 84 | 1011.1 |
| 20260506030734 | 56 | 167 | 0.0 | 0.0 | 0.00 | 0.00 | 0.00 | 84 | 1011.1 |
| 20260506030620 | 56 | 167 | 0.0 | 0.0 | 0.00 | 0.00 | 0.00 | 84 | 1011.1 |
| 20260506030510 | 56 | 167 | 0.0 | 0.0 | 0.00 | 0.00 | 0.00 | 84 | 1011.0 |
| 20260506030416 | 56 | 167 | 0.0 | 0.0 | 0.00 | 0.00 | 0.00 | 84 | 1011.0 |
| 20260506030322 | 56 | 167 | 0.0 | 0.0 | 0.00 | 0.00 | 0.00 | 84 | 1011.0 |
| 20260506030235 | 56 | 167 | 0.0 | 0.0 | 0.00 | 0.00 | 0.00 | 84 | 1011.0 |
| 20260506030122 | 56 | 167 | 0.0 | 0.0 | 0.00 | 0.00 | 0.00 | 84 | 1011.0 |
| 20260506030012 | 56 | 167 | 0.0 | 0.0 | 0.00 | 0.00 | 0.00 | 83 | 1011.0 |
| 20260506030003 | 56 | 167 | 0.0 | 0.0 | 0.00 | 0.00 | 0.00 | 83 | 1010.6 |
| 20260506025918 | 56 | 167 | 0.0 | 0.0 | 0.00 | 0.00 | 0.00 | 83 | 1011.0 |
| 20260506025824 | 57 | 167 | 0.0 | 0.0 | 0.00 | 0.00 | 0.00 | 83 | 1011.0 |
| 20260506025709 | 57 | 167 | 0.0 | 0.0 | 0.00 | 0.00 | 0.00 | 83 | 1011.0 |
| 20260506025615 | 57 | 167 | 0.0 | 0.0 | 0.00 | 0.00 | 0.00 | 83 | 1011.0 |
| 20260506025548 | 57 | 167 | 0.0 | 0.0 | 0.00 | 0.00 | 0.00 | 83 | 1011.0 |
| 20260506025417 | 57 | 167 | 0.0 | 0.0 | 0.00 | 0.00 | 0.00 | 83 | 1011.0 |
| 20260506025350 | 57 | 167 | 0.0 | 0.0 | 0.00 | 0.00 | 0.00 | 83 | 1011.0 |
| 20260506025215 | 57 | 167 | 0.0 | 0.0 | 0.00 | 0.00 | 0.00 | 83 | 1011.0 |
| 20260506025121 | 57 | 167 | 0.0 | 0.0 | 0.00 | 0.00 | 0.00 | 83 | 1011.0 |
| 20260506025027 | 57 | 167 | 0.0 | 0.0 | 0.00 | 0.00 | 0.00 | 83 | 1011.0 |
| 20260506024913 | 57 | 167 | 0.0 | 0.0 | 0.00 | 0.00 | 0.00 | 83 | 1011.0 |
| 20260506024823 | 57 | 167 | 0.0 | 0.0 | 0.00 | 0.00 | 0.00 | 84 | 1011.0 |
| 20260506024709 | 57 | 167 | 0.0 | 0.0 | 0.00 | 0.00 | 0.00 | 83 | 1010.9 |
| 20260506024642 | 57 | 167 | 0.0 | 0.0 | 0.00 | 0.00 | 0.00 | 83 | 1010.9 |
| 20260506024554 | 57 | 167 | 0.0 | 0.0 | 0.00 | 0.00 | 0.00 | 82 | 1011.0 |
| 20260506024524 | 57 | 167 | 0.0 | 0.0 | 0.00 | 0.00 | 0.00 | 82 | 1010.5 |
| 20260506024419 | 57 | 167 | 0.0 | 0.0 | 0.00 | 0.00 | 0.00 | 82 | 1011.0 |
| 20260506024325 | 57 | 167 | 0.0 | 0.0 | 0.00 | 0.00 | 0.00 | 82 | 1011.0 |
| 20260506024216 | 57 | 167 | 0.0 | 0.0 | 0.00 | 0.00 | 0.00 | 82 | 1011.1 |
| 20260506024121 | 57 | 167 | 0.0 | 0.0 | 0.00 | 0.00 | 0.00 | 82 | 1011.1 |
| 20260506024035 | 57 | 167 | 0.0 | 0.0 | 0.00 | 0.00 | 0.00 | 82 | 1011.1 |
| 20260506023914 | 58 | 167 | 0.0 | 0.0 | 0.00 | 0.00 | 0.00 | 82 | 1011.1 |
| 20260506023847 | 58 | 167 | 0.0 | 0.0 | 0.00 | 0.00 | 0.00 | 82 | 1011.1 |
| 20260506023712 | 58 | 167 | 0.0 | 0.0 | 0.00 | 0.00 | 0.00 | 82 | 1011.2 |
| 20260506023622 | 58 | 167 | 0.0 | 0.0 | 0.00 | 0.00 | 0.00 | 82 | 1011.2 |
| 20260506023535 | 58 | 167 | 0.0 | 0.0 | 0.00 | 0.00 | 0.00 | 82 | 1011.2 |
| 20260506023421 | 58 | 167 | 0.0 | 0.0 | 0.00 | 0.00 | 0.00 | 81 | 1011.2 |
| 20260506023327 | 58 | 167 | 0.0 | 0.0 | 0.00 | 0.00 | 0.00 | 81 | 1011.3 |
| 20260506023214 | 58 | 167 | 0.0 | 0.0 | 0.00 | 0.00 | 0.00 | 81 | 1011.3 |
| 20260506023120 | 58 | 167 | 0.0 | 0.0 | 0.00 | 0.00 | 0.00 | 81 | 1011.3 |
| 20260506023039 | 57 | 167 | 0.0 | 0.0 | 0.00 | 0.00 | 0.00 | 81 | 1010.9 |
| 20260506023010 | 58 | 167 | 0.0 | 0.0 | 0.00 | 0.00 | 0.00 | 81 | 1011.3 |
| 20260506022943 | 58 | 167 | 0.0 | 0.0 | 0.00 | 0.00 | 0.00 | 81 | 1011.3 |
| 20260506022838 | 58 | 167 | 0.0 | 0.0 | 0.00 | 0.00 | 0.00 | 81 | 1011.2 |
| 20260506022720 | 58 | 167 | 0.0 | 0.0 | 0.00 | 0.00 | 0.00 | 81 | 1011.2 |
| 20260506022633 | 58 | 167 | 0.0 | 0.0 | 0.00 | 0.00 | 0.00 | 81 | 1011.2 |
| 20260506022519 | 58 | 167 | 0.0 | 0.0 | 0.00 | 0.00 | 0.00 | 81 | 1011.2 |
| 20260506022449 | 58 | 167 | 0.0 | 0.0 | 0.00 | 0.00 | 0.00 | 81 | 1011.2 |
| 20260506022314 | 58 | 167 | 0.0 | 0.0 | 0.00 | 0.00 | 0.00 | 81 | 1011.2 |
| 20260506022227 | 58 | 167 | 0.0 | 0.0 | 0.00 | 0.00 | 0.00 | 80 | 1011.2 |
| 20260506022146 | 58 | 167 | 0.0 | 0.0 | 0.00 | 0.00 | 0.00 | 80 | 1011.2 |
| 20260506022010 | 58 | 167 | 0.0 | 0.0 | 0.00 | 0.00 | 0.00 | 80 | 1011.2 |
| 20260506021916 | 58 | 167 | 0.0 | 0.0 | 0.00 | 0.00 | 0.00 | 80 | 1011.2 |
| 20260506021833 | 58 | 167 | 0.0 | 0.0 | 0.00 | 0.00 | 0.00 | 80 | 1011.2 |
| 20260506021719 | 58 | 167 | 0.0 | 0.0 | 0.00 | 0.00 | 0.00 | 80 | 1011.2 |
| 20260506021625 | 58 | 167 | 0.0 | 0.0 | 0.00 | 0.00 | 0.00 | 80 | 1011.2 |
| 20260506021552 | 58 | 167 | 0.0 | 0.0 | 0.00 | 0.00 | 0.00 | 80 | 1010.7 |
| 20260506021510 | 58 | 167 | 0.0 | 0.0 | 0.00 | 0.00 | 0.00 | 80 | 1011.2 |
| 20260506021418 | 58 | 167 | 0.0 | 0.0 | 0.00 | 0.00 | 0.00 | 80 | 1011.2 |
| 20260506021318 | 58 | 167 | 0.0 | 0.0 | 0.00 | 0.00 | 0.00 | 80 | 1011.2 |
| 20260506021216 | 58 | 167 | 0.0 | 0.0 | 0.00 | 0.00 | 0.00 | 80 | 1011.2 |
| 20260506021120 | 58 | 167 | 0.0 | 0.0 | 0.00 | 0.00 | 0.00 | 80 | 1011.2 |
| 20260506021026 | 58 | 167 | 0.0 | 0.0 | 0.00 | 0.00 | 0.00 | 80 | 1011.2 |
| 20260506020913 | 58 | 167 | 0.0 | 0.0 | 0.00 | 0.00 | 0.00 | 80 | 1011.1 |
| 20260506020814 | 58 | 167 | 0.0 | 0.0 | 0.00 | 0.00 | 0.00 | 81 | 1011.1 |
| 20260506020731 | 58 | 167 | 0.0 | 0.0 | 0.00 | 0.00 | 0.00 | 80 | 1011.1 |
| 20260506020617 | 58 | 167 | 0.0 | 0.0 | 0.00 | 0.00 | 0.00 | 80 | 1011.1 |
| 20260506020523 | 58 | 167 | 0.0 | 0.0 | 0.00 | 0.00 | 0.00 | 79 | 1011.1 |
| 20260506020409 | 58 | 167 | 0.0 | 0.0 | 0.00 | 0.00 | 0.00 | 79 | 1011.1 |
| 20260506020313 | 59 | 167 | 0.0 | 0.0 | 0.00 | 0.00 | 0.00 | 79 | 1011.1 |
| 20260506020224 | 59 | 167 | 0.0 | 0.0 | 0.00 | 0.00 | 0.00 | 79 | 1011.1 |
| 20260506020113 | 59 | 167 | 0.0 | 0.0 | 0.00 | 0.00 | 0.00 | 79 | 1011.1 |
| 20260506020055 | 58 | 167 | 0.0 | 0.0 | 0.00 | 0.00 | 0.00 | 79 | 1010.7 |
| 20260506020012 | 59 | 167 | 0.0 | 0.0 | 0.00 | 0.00 | 0.00 | 79 | 1011.1 |
| 20260506015918 | 59 | 167 | 0.0 | 0.0 | 0.00 | 0.00 | 0.00 | 79 | 1011.1 |
| 20260506015831 | 59 | 167 | 0.0 | 0.0 | 0.00 | 0.00 | 0.00 | 79 | 1011.1 |
| 20260506015717 | 59 | 167 | 0.0 | 0.0 | 0.00 | 0.00 | 0.00 | 79 | 1011.0 |
| 20260506015623 | 59 | 167 | 0.0 | 0.0 | 0.00 | 0.00 | 0.00 | 78 | 1011.0 |
| 20260506015533 | 59 | 167 | 0.0 | 0.0 | 0.00 | 0.00 | 0.00 | 78 | 1011.1 |
| 20260506015445 | 59 | 167 | 0.0 | 0.0 | 0.00 | 0.00 | 0.00 | 78 | 1011.1 |
| 20260506015310 | 59 | 167 | 0.0 | 0.0 | 0.00 | 0.00 | 0.00 | 78 | 1011.0 |
| 20260506015216 | 59 | 167 | 0.0 | 0.0 | 0.00 | 0.00 | 0.00 | 78 | 1011.0 |
| 20260506015122 | 59 | 167 | 0.0 | 0.0 | 0.00 | 0.00 | 0.00 | 78 | 1011.0 |
| 20260506015035 | 59 | 167 | 0.0 | 0.0 | 0.00 | 0.00 | 0.00 | 78 | 1011.0 |
| 20260506014940 | 59 | 167 | 0.0 | 0.0 | 0.00 | 0.00 | 0.00 | 78 | 1011.0 |
| 20260506014809 | 59 | 167 | 0.0 | 0.0 | 0.00 | 0.00 | 0.00 | 78 | 1011.0 |
| 20260506014722 | 59 | 167 | 0.0 | 0.0 | 0.00 | 0.00 | 0.00 | 78 | 1011.0 |
| 20260506014628 | 60 | 167 | 0.0 | 0.0 | 0.00 | 0.00 | 0.00 | 77 | 1010.9 |
| 20260506014559 | 59 | 167 | 0.0 | 0.0 | 0.00 | 0.00 | 0.00 | 77 | 1010.5 |
| 20260506014514 | 60 | 167 | 0.0 | 0.0 | 0.00 | 0.00 | 0.00 | 77 | 1011.0 |
| 20260506014420 | 60 | 167 | 0.0 | 0.0 | 0.00 | 0.00 | 0.00 | 77 | 1011.0 |
| 20260506014338 | 60 | 167 | 0.0 | 0.0 | 0.00 | 0.00 | 0.00 | 77 | 1011.0 |
| 20260506014219 | 60 | 167 | 0.0 | 0.0 | 0.00 | 0.00 | 0.00 | 76 | 1011.0 |
| 20260506014114 | 60 | 167 | 0.0 | 0.0 | 0.00 | 0.00 | 0.00 | 77 | 1011.0 |
| 20260506014019 | 60 | 167 | 0.0 | 0.0 | 0.00 | 0.00 | 0.00 | 76 | 1011.0 |
| 20260506013932 | 60 | 167 | 0.0 | 0.0 | 0.00 | 0.00 | 0.00 | 76 | 1011.0 |
| 20260506013818 | 60 | 167 | 0.0 | 0.0 | 0.00 | 0.00 | 0.00 | 76 | 1011.0 |
| 20260506013727 | 60 | 167 | 0.0 | 0.0 | 0.00 | 0.00 | 0.00 | 76 | 1011.0 |
| 20260506013610 | 60 | 167 | 0.0 | 0.0 | 0.00 | 0.00 | 0.00 | 76 | 1011.0 |
| 20260506013515 | 60 | 167 | 0.0 | 0.0 | 0.00 | 0.00 | 0.00 | 76 | 1011.0 |
| 20260506013448 | 60 | 167 | 0.0 | 0.0 | 0.00 | 0.00 | 0.00 | 76 | 1011.0 |
| 20260506013333 | 60 | 167 | 0.0 | 0.0 | 0.00 | 0.00 | 0.00 | 76 | 1011.0 |
| 20260506013218 | 61 | 167 | 0.0 | 0.0 | 0.00 | 0.00 | 0.00 | 76 | 1011.0 |
| 20260506013148 | 61 | 167 | 0.0 | 0.0 | 0.00 | 0.00 | 0.00 | 76 | 1011.0 |
| 20260506013102 | 60 | 167 | 0.0 | 0.0 | 0.00 | 0.00 | 0.00 | 76 | 1010.5 |
| 20260506013017 | 61 | 167 | 0.0 | 0.0 | 0.00 | 0.00 | 0.00 | 75 | 1011.0 |
| 20260506012923 | 61 | 167 | 0.0 | 0.0 | 0.00 | 0.00 | 0.00 | 75 | 1011.0 |
| 20260506012836 | 61 | 167 | 0.0 | 0.0 | 0.00 | 0.00 | 0.00 | 74 | 1010.9 |
| 20260506012718 | 61 | 167 | 0.0 | 0.0 | 0.00 | 0.00 | 0.00 | 74 | 1011.0 |
| 20260506012623 | 61 | 167 | 0.0 | 0.0 | 0.00 | 0.00 | 0.00 | 73 | 1011.0 |
| 20260506012512 | 61 | 167 | 0.0 | 0.0 | 0.00 | 0.00 | 0.00 | 73 | 1010.9 |
| 20260506012442 | 61 | 167 | 0.0 | 0.0 | 0.00 | 0.00 | 0.00 | 73 | 1010.9 |
| 20260506012313 | 61 | 167 | 0.0 | 0.0 | 0.00 | 0.00 | 0.00 | 71 | 1010.9 |
| 20260506012225 | 61 | 167 | 0.0 | 0.0 | 0.00 | 0.00 | 0.00 | 71 | 1010.9 |
| 20260506012126 | 62 | 167 | 0.0 | 0.0 | 0.00 | 0.00 | 0.00 | 72 | 1010.8 |
| 20260506012059 | 62 | 167 | 0.0 | 0.0 | 0.00 | 0.00 | 0.00 | 73 | 1010.8 |
| 20260506011922 | 62 | 167 | 0.0 | 0.0 | 0.00 | 0.00 | 0.00 | 74 | 1010.8 |
| 20260506011822 | 62 | 167 | 0.0 | 0.0 | 0.00 | 0.00 | 0.00 | 74 | 1010.7 |
| 20260506011724 | 62 | 167 | 0.0 | 0.0 | 0.00 | 0.00 | 0.00 | 74 | 1010.7 |
| 20260506011638 | 62 | 167 | 0.0 | 0.0 | 0.00 | 0.00 | 0.00 | 74 | 1010.7 |
| 20260506011610 | 62 | 167 | 0.0 | 0.0 | 0.00 | 0.00 | 0.00 | 74 | 1010.3 |
| 20260506011522 | 62 | 167 | 0.0 | 0.0 | 0.00 | 0.00 | 0.00 | 74 | 1010.7 |
| 20260506011428 | 62 | 167 | 0.0 | 0.0 | 0.00 | 0.00 | 0.00 | 74 | 1010.6 |
| 20260506011327 | 62 | 167 | 0.0 | 0.0 | 0.00 | 0.00 | 0.00 | 74 | 1010.7 |
| 20260506011213 | 62 | 167 | 0.0 | 0.0 | 0.00 | 0.00 | 0.00 | 74 | 1010.7 |
| 20260506011124 | 63 | 167 | 0.0 | 0.0 | 0.00 | 0.00 | 0.00 | 74 | 1010.7 |
| 20260506011024 | 63 | 167 | 0.0 | 0.0 | 0.00 | 0.00 | 0.00 | 75 | 1010.6 |
| 20260506010911 | 63 | 167 | 0.0 | 0.0 | 0.00 | 0.00 | 0.00 | 73 | 1010.7 |
| 20260506010844 | 63 | 167 | 0.0 | 0.0 | 0.00 | 0.00 | 0.00 | 73 | 1010.7 |
| 20260506010740 | 63 | 167 | 0.0 | 0.0 | 0.00 | 0.00 | 0.00 | 69 | 1010.6 |
| 20260506010626 | 63 | 167 | 0.0 | 0.0 | 0.00 | 0.00 | 0.00 | 70 | 1010.6 |
| 20260506010509 | 63 | 167 | 0.0 | 0.0 | 0.00 | 0.00 | 0.00 | 70 | 1010.6 |
| 20260506010442 | 63 | 167 | 0.0 | 0.0 | 0.00 | 0.00 | 0.00 | 70 | 1010.6 |
| 20260506010355 | 63 | 167 | 0.0 | 0.0 | 0.00 | 0.00 | 0.00 | 67 | 1010.6 |
| 20260506010212 | 63 | 167 | 0.0 | 0.0 | 0.00 | 0.00 | 0.00 | 65 | 1010.7 |
| 20260506010125 | 63 | 167 | 0.0 | 0.0 | 0.00 | 0.00 | 0.00 | 65 | 1010.7 |
| 20260506010121 | 63 | 167 | 0.0 | 0.0 | 0.00 | 0.00 | 0.00 | 65 | 1010.2 |
| 20260506010015 | 63 | 167 | 0.0 | 0.0 | 0.00 | 0.00 | 0.00 | 65 | 1010.6 |
| 20260506005932 | 63 | 167 | 0.0 | 0.0 | 0.00 | 0.00 | 0.00 | 65 | 1010.6 |
| 20260506005811 | 64 | 167 | 0.0 | 0.0 | 0.00 | 0.00 | 0.00 | 65 | 1010.6 |
| 20260506005724 | 64 | 167 | 0.0 | 0.0 | 0.00 | 0.00 | 0.00 | 64 | 1010.6 |
| 20260506005632 | 64 | 167 | 0.0 | 0.0 | 0.00 | 0.00 | 0.00 | 64 | 1010.6 |
| 20260506005514 | 64 | 167 | 0.0 | 0.0 | 0.00 | 0.00 | 0.00 | 65 | 1010.6 |
| 20260506005420 | 64 | 167 | 0.0 | 0.0 | 0.00 | 0.00 | 0.00 | 63 | 1010.6 |
| 20260506005311 | 64 | 167 | 0.0 | 0.0 | 0.00 | 0.00 | 0.00 | 63 | 1010.6 |
| 20260506005224 | 64 | 167 | 0.0 | 0.0 | 0.00 | 0.00 | 0.00 | 63 | 1010.6 |
| 20260506005121 | 64 | 167 | 0.0 | 0.0 | 0.00 | 0.00 | 0.00 | 64 | 1010.6 |
| 20260506005028 | 64 | 167 | 0.0 | 0.0 | 0.00 | 0.00 | 0.00 | 63 | 1010.6 |
| 20260506004940 | 64 | 167 | 0.0 | 0.0 | 0.00 | 0.00 | 0.00 | 63 | 1010.6 |
| 20260506004823 | 64 | 167 | 0.0 | 0.0 | 0.00 | 0.00 | 0.00 | 61 | 1010.5 |
| 20260506004709 | 65 | 167 | 0.0 | 0.0 | 0.00 | 0.00 | 0.00 | 61 | 1010.5 |
| 20260506004614 | 65 | 167 | 0.0 | 0.0 | 0.00 | 0.00 | 0.00 | 61 | 1010.5 |
| 20260506004548 | 64 | 167 | 0.0 | 0.0 | 0.00 | 0.00 | 0.00 | 62 | 1010.1 |
| 20260506004521 | 65 | 167 | 0.0 | 0.0 | 0.00 | 0.00 | 0.00 | 62 | 1010.5 |
| 20260506004420 | 65 | 167 | 0.0 | 0.0 | 0.00 | 0.00 | 0.00 | 62 | 1010.5 |
| 20260506004332 | 65 | 167 | 0.0 | 0.0 | 0.00 | 0.00 | 0.00 | 62 | 1010.5 |
| 20260506004220 | 65 | 167 | 0.0 | 0.0 | 0.00 | 0.00 | 0.00 | 61 | 1010.5 |
| 20260506004154 | 65 | 167 | 0.0 | 0.0 | 0.00 | 0.00 | 0.00 | 60 | 1010.5 |
| 20260506004038 | 65 | 167 | 0.0 | 0.0 | 0.00 | 0.00 | 0.00 | 61 | 1010.4 |
| 20260506003920 | 66 | 167 | 0.0 | 0.0 | 0.00 | 0.00 | 0.00 | 59 | 1010.4 |
| 20260506003833 | 66 | 167 | 0.0 | 0.0 | 0.00 | 0.00 | 0.00 | 57 | 1010.4 |
| 20260506003709 | 66 | 167 | 0.0 | 0.0 | 0.00 | 0.00 | 0.00 | 60 | 1010.4 |
| 20260506003616 | 66 | 167 | 0.0 | 0.0 | 0.00 | 0.00 | 0.00 | 60 | 1010.4 |
| 20260506003526 | 66 | 167 | 0.0 | 0.0 | 0.00 | 0.00 | 0.00 | 59 | 1010.4 |
| 20260506003432 | 66 | 167 | 0.0 | 0.0 | 0.00 | 0.00 | 0.00 | 59 | 1010.4 |
| 20260506003324 | 66 | 167 | 0.0 | 0.0 | 0.00 | 0.00 | 0.00 | 58 | 1010.4 |
| 20260506003210 | 67 | 167 | 0.0 | 0.0 | 0.00 | 0.00 | 0.00 | 58 | 1010.3 |
| 20260506003116 | 67 | 167 | 0.0 | 0.0 | 0.00 | 0.00 | 0.00 | 59 | 1010.3 |
| 20260506003036 | 66 | 167 | 0.0 | 0.0 | 0.00 | 0.00 | 0.00 | 57 | 1009.9 |
| 20260506003016 | 67 | 167 | 0.0 | 0.0 | 0.00 | 0.00 | 0.00 | 57 | 1010.3 |
| 20260506002933 | 67 | 167 | 0.0 | 0.0 | 0.00 | 0.00 | 0.00 | 56 | 1010.3 |
| 20260506002839 | 67 | 167 | 0.0 | 0.0 | 0.00 | 0.00 | 0.00 | 57 | 1010.3 |
| 20260506002724 | 67 | 167 | 0.0 | 0.0 | 0.00 | 0.00 | 0.00 | 55 | 1010.3 |
| 20260506002610 | 67 | 167 | 0.0 | 0.0 | 0.00 | 0.00 | 0.00 | 55 | 1010.3 |
| 20260506002516 | 68 | 167 | 0.0 | 0.0 | 0.00 | 0.00 | 0.00 | 55 | 1010.3 |
| 20260506002429 | 68 | 167 | 0.0 | 0.0 | 0.00 | 0.00 | 0.00 | 54 | 1010.3 |
| 20260506002319 | 68 | 167 | 0.0 | 0.0 | 0.00 | 0.00 | 0.00 | 54 | 1010.3 |
| 20260506002225 | 68 | 167 | 0.0 | 0.0 | 0.00 | 0.00 | 0.00 | 53 | 1010.3 |
| 20260506002111 | 68 | 167 | 0.0 | 0.0 | 0.00 | 0.00 | 0.00 | 55 | 1010.2 |
| 20260506002014 | 68 | 167 | 0.0 | 0.0 | 0.00 | 0.00 | 0.00 | 55 | 1010.2 |
| 20260506001947 | 68 | 167 | 0.0 | 0.0 | 0.00 | 0.00 | 0.00 | 55 | 1010.2 |
| 20260506001817 | 69 | 167 | 0.0 | 0.0 | 0.00 | 0.00 | 0.00 | 56 | 1010.2 |
| 20260506001723 | 69 | 167 | 0.0 | 0.0 | 0.00 | 0.00 | 0.00 | 56 | 1010.2 |
| 20260506001637 | 69 | 167 | 0.0 | 0.0 | 0.00 | 0.00 | 0.00 | 54 | 1010.2 |
| 20260506001627 | 68 | 167 | 0.0 | 0.0 | 0.00 | 0.00 | 0.00 | 54 | 1009.8 |
| 20260506001539 | 69 | 167 | 0.0 | 0.0 | 0.00 | 0.00 | 0.00 | 52 | 1010.2 |
| 20260506001424 | 69 | 167 | 0.0 | 0.0 | 0.00 | 0.00 | 0.00 | 52 | 1010.2 |
| 20260506001222 | 70 | 167 | 0.0 | 0.0 | 0.00 | 0.00 | 0.00 | 52 | 1010.1 |
| 20260506001129 | 70 | 167 | 0.0 | 0.0 | 0.00 | 0.00 | 0.00 | 52 | 1010.1 |
| 20260506001029 | 70 | 167 | 0.0 | 0.0 | 0.00 | 0.00 | 0.00 | 53 | 1010.1 |
| 20260506000914 | 70 | 167 | 0.0 | 0.0 | 0.00 | 0.00 | 0.00 | 51 | 1010.1 |
| 20260506000847 | 70 | 167 | 0.0 | 0.0 | 0.00 | 0.00 | 0.00 | 50 | 1010.1 |
| 20260506000712 | 70 | 167 | 0.0 | 0.0 | 0.00 | 0.00 | 0.00 | 50 | 1010.0 |
| 20260506000615 | 71 | 167 | 0.0 | 0.0 | 0.00 | 0.00 | 0.00 | 51 | 1010.0 |
| 20260506000533 | 71 | 167 | 0.0 | 0.0 | 0.00 | 0.00 | 0.00 | 51 | 1010.0 |
| 20260506000438 | 71 | 167 | 0.0 | 0.0 | 0.00 | 0.00 | 0.00 | 49 | 1010.0 |
| 20260506000319 | 71 | 167 | 0.0 | 0.0 | 0.00 | 0.00 | 0.00 | 47 | 1010.0 |
| 20260506000219 | 71 | 167 | 0.0 | 0.0 | 0.00 | 0.00 | 0.00 | 46 | 1010.0 |
| 20260506000122 | 71 | 167 | 0.0 | 0.0 | 0.00 | 0.00 | 0.00 | 49 | 1010.0 |
| 20260506000030 | 71 | 167 | 0.0 | 0.0 | 0.00 | 0.00 | 0.00 | 48 | 1009.6 |
| 20260506000011 | 72 | 167 | 0.0 | 0.0 | 0.00 | 0.00 | 0.00 | 48 | 1010.0 |
| 20260505235924 | 72 | 167 | 0.0 | 0.0 | 0.00 | 0.00 | 0.00 | 47 | 1010.0 |
| 20260505235810 | 72 | 167 | 0.0 | 0.0 | 0.00 | 0.00 | 0.00 | 48 | 1010.1 |
| 20260505235717 | 72 | 167 | 0.0 | 0.0 | 0.00 | 0.00 | 0.00 | 45 | 1010.0 |
| 20260505235622 | 72 | 167 | 0.0 | 0.0 | 0.00 | 0.00 | 0.00 | 49 | 1010.0 |
| 20260505235528 | 72 | 167 | 0.0 | 0.0 | 0.00 | 0.00 | 0.00 | 46 | 1010.0 |
| 20260505235445 | 72 | 167 | 0.0 | 0.0 | 0.00 | 0.00 | 0.00 | 45 | 1010.0 |
| 20260505235321 | 73 | 167 | 0.0 | 0.0 | 0.00 | 0.00 | 0.00 | 46 | 1010.0 |
| 20260505235227 | 73 | 167 | 0.0 | 0.0 | 0.00 | 0.00 | 0.00 | 46 | 1010.0 |
| 20260505235113 | 73 | 167 | 0.0 | 0.0 | 0.00 | 0.00 | 0.00 | 43 | 1010.0 |
| 20260505235019 | 73 | 167 | 0.0 | 0.0 | 0.00 | 0.00 | 0.00 | 42 | 1010.0 |
| 20260505234909 | 73 | 167 | 0.0 | 0.0 | 0.00 | 0.00 | 0.00 | 43 | 1009.9 |
| 20260505234823 | 73 | 167 | 0.0 | 0.0 | 0.00 | 0.00 | 0.00 | 46 | 1009.9 |
| 20260505234728 | 74 | 167 | 0.0 | 0.0 | 0.00 | 0.00 | 0.00 | 41 | 1009.9 |
| 20260505234634 | 74 | 167 | 0.0 | 0.0 | 0.00 | 0.00 | 0.00 | 43 | 1009.9 |
| 20260505234546 | 74 | 167 | 0.0 | 0.0 | 0.00 | 0.00 | 0.00 | 45 | 1009.9 |
| 20260505234504 | 74 | 167 | 0.0 | 0.0 | 0.00 | 0.00 | 0.00 | 45 | 1009.4 |
| 20260505234410 | 74 | 167 | 0.0 | 0.0 | 0.00 | 0.00 | 0.00 | 41 | 1009.9 |
| 20260505234336 | 74 | 167 | 0.0 | 0.0 | 0.00 | 0.00 | 0.00 | 40 | 1009.9 |
| 20260505234232 | 75 | 167 | 0.0 | 0.0 | 0.00 | 0.00 | 0.00 | 42 | 1009.9 |
| 20260505234117 | 75 | 167 | 0.0 | 0.0 | 0.00 | 0.00 | 0.00 | 40 | 1009.9 |
| 20260505234023 | 75 | 167 | 0.0 | 0.0 | 0.00 | 0.00 | 0.00 | 39 | 1009.9 |
| 20260505233909 | 75 | 167 | 0.0 | 1.0 | 0.00 | 0.00 | 0.00 | 39 | 1009.9 |
| 20260505233823 | 75 | 167 | 0.0 | 1.0 | 0.00 | 0.00 | 0.00 | 39 | 1009.9 |
| 20260505233727 | 75 | 142 | 0.0 | 1.0 | 0.00 | 0.00 | 0.00 | 40 | 1009.9 |
| 20260505233610 | 76 | 37 | 0.0 | 1.0 | 0.00 | 0.00 | 0.00 | 39 | 1009.9 |
| 20260505233517 | 76 | 37 | 0.0 | 4.0 | 0.00 | 0.00 | 0.00 | 39 | 1009.9 |
| 20260505233430 | 76 | 36 | 0.0 | 4.0 | 0.00 | 0.00 | 0.00 | 38 | 1009.9 |
| 20260505233335 | 76 | 64 | 0.0 | 4.0 | 0.00 | 0.00 | 0.00 | 38 | 1009.9 |
| 20260505233227 | 76 | 189 | 0.0 | 4.0 | 0.00 | 0.00 | 0.00 | 38 | 1009.9 |
| 20260505233118 | 76 | 54 | 0.0 | 4.0 | 0.00 | 0.00 | 0.00 | 35 | 1009.3 |
| 20260505233113 | 77 | 57 | 0.0 | 4.0 | 0.00 | 0.00 | 0.00 | 35 | 1009.8 |
| 20260505233018 | 77 | 134 | 0.0 | 4.0 | 0.00 | 0.00 | 0.00 | 37 | 1009.9 |
| 20260505232924 | 77 | 200 | 0.0 | 4.0 | 0.00 | 0.00 | 0.00 | 39 | 1009.9 |
| 20260505232810 | 77 | 234 | 1.0 | 4.0 | 0.00 | 0.00 | 0.00 | 34 | 1009.9 |
| 20260505232724 | 77 | 31 | 1.0 | 4.0 | 0.00 | 0.00 | 0.00 | 36 | 1009.9 |
| 20260505232649 | 77 | 32 | 0.0 | 0.0 | 0.00 | 0.00 | 0.00 | 37 | 1009.9 |
| 20260505232514 | 78 | 292 | 0.0 | 0.0 | 0.00 | 0.00 | 0.00 | 38 | 1009.8 |
| 20260505232420 | 78 | 20 | 0.0 | 0.0 | 0.00 | 0.00 | 0.00 | 35 | 1009.8 |
| 20260505232310 | 78 | 311 | 0.0 | 2.0 | 0.00 | 0.00 | 0.00 | 36 | 1009.8 |
| 20260505232243 | 78 | 14 | 0.0 | 2.0 | 0.00 | 0.00 | 0.00 | 35 | 1009.8 |
| 20260505232128 | 78 | 5 | 0.0 | 2.0 | 0.00 | 0.00 | 0.00 | 35 | 1009.9 |
| 20260505232041 | 78 | 5 | 0.0 | 2.0 | 0.00 | 0.00 | 0.00 | 34 | 1009.9 |
| 20260505231926 | 78 | 282 | 0.0 | 5.0 | 0.00 | 0.00 | 0.00 | 34 | 1009.9 |
| 20260505231832 | 78 | 128 | 0.0 | 5.0 | 0.00 | 0.00 | 0.00 | 35 | 1009.8 |
| 20260505231727 | 78 | 219 | 0.0 | 5.0 | 0.00 | 0.00 | 0.00 | 33 | 1009.8 |
| 20260505231615 | 78 | 53 | 0.0 | 5.0 | 0.00 | 0.00 | 0.00 | 34 | 1009.8 |
| 20260505231605 | 78 | 22 | 0.0 | 5.0 | 0.00 | 0.00 | 0.00 | 34 | 1009.3 |
| 20260505231519 | 78 | 5 | 0.0 | 6.0 | 0.00 | 0.00 | 0.00 | 33 | 1009.8 |
| 20260505231425 | 78 | 291 | 0.0 | 6.0 | 0.00 | 0.00 | 0.00 | 32 | 1009.8 |
| 20260505231331 | 78 | 301 | 0.0 | 6.0 | 0.00 | 0.00 | 0.00 | 32 | 1009.8 |
| 20260505231241 | 78 | 28 | 1.0 | 6.0 | 0.00 | 0.00 | 0.00 | 32 | 1009.9 |
| 20260505231123 | 78 | 32 | 2.0 | 6.0 | 0.00 | 0.00 | 0.00 | 35 | 1009.8 |
| 20260505231010 | 78 | 40 | 2.0 | 6.0 | 0.00 | 0.00 | 0.00 | 32 | 1009.8 |
| 20260505230936 | 78 | 211 | 2.0 | 6.0 | 0.00 | 0.00 | 0.00 | 33 | 1009.8 |
| 20260505230827 | 78 | 273 | 2.0 | 6.0 | 0.00 | 0.00 | 0.00 | 33 | 1009.8 |
| 20260505230734 | 78 | 43 | 1.0 | 6.0 | 0.00 | 0.00 | 0.00 | 32 | 1009.8 |
| 20260505230639 | 78 | 113 | 0.0 | 0.0 | 0.00 | 0.00 | 0.00 | 34 | 1009.9 |
| 20260505230537 | 79 | 277 | 0.0 | 0.0 | 0.00 | 0.00 | 0.00 | 35 | 1009.8 |
| 20260505230420 | 79 | 5 | 0.0 | 0.0 | 0.00 | 0.00 | 0.00 | 33 | 1009.8 |
| 20260505230326 | 79 | 31 | 0.0 | 0.0 | 0.00 | 0.00 | 0.00 | 34 | 1009.7 |
| 20260505230233 | 79 | 79 | 0.0 | 1.0 | 0.00 | 0.00 | 0.00 | 34 | 1009.8 |
| 20260505230125 | 79 | 65 | 0.0 | 7.0 | 0.00 | 0.00 | 0.00 | 31 | 1009.8 |
| 20260505230109 | 78 | 35 | 0.0 | 7.0 | 0.00 | 0.00 | 0.00 | 31 | 1009.3 |
| 20260505230011 | 79 | 153 | 0.0 | 7.0 | 0.00 | 0.00 | 0.00 | 32 | 1009.8 |
| 20260505225921 | 79 | 44 | 0.0 | 7.0 | 0.00 | 0.00 | 0.00 | 32 | 1009.8 |
| 20260505225827 | 79 | 5 | 0.0 | 7.0 | 0.00 | 0.00 | 0.00 | 31 | 1009.8 |
| 20260505225713 | 79 | 329 | 0.0 | 7.0 | 0.00 | 0.00 | 0.00 | 31 | 1009.8 |
| 20260505225619 | 79 | 9 | 0.0 | 7.0 | 0.00 | 0.00 | 0.00 | 32 | 1009.8 |
| 20260505225532 | 79 | 338 | 0.0 | 9.0 | 0.00 | 0.00 | 0.00 | 31 | 1009.8 |
| 20260505225419 | 79 | 327 | 1.0 | 9.0 | 0.00 | 0.00 | 0.00 | 33 | 1009.9 |
| 20260505225309 | 79 | 38 | 1.0 | 11.0 | 0.00 | 0.00 | 0.00 | 34 | 1009.8 |
| 20260505225216 | 79 | 331 | 0.0 | 11.0 | 0.00 | 0.00 | 0.00 | 32 | 1010.0 |
| 20260505225119 | 79 | 56 | 0.0 | 11.0 | 0.00 | 0.00 | 0.00 | 31 | 1010.0 |
| 20260505225032 | 79 | 60 | 0.0 | 11.0 | 0.00 | 0.00 | 0.00 | 31 | 1009.8 |
| 20260505224911 | 79 | 57 | 0.0 | 11.0 | 0.00 | 0.00 | 0.00 | 31 | 1009.9 |
| 20260505224828 | 79 | 346 | 2.0 | 11.0 | 0.00 | 0.00 | 0.00 | 32 | 1009.9 |
| 20260505224734 | 79 | 288 | 3.0 | 11.0 | 0.00 | 0.00 | 0.00 | 30 | 1009.9 |
| 20260505224619 | 79 | 344 | 3.0 | 11.0 | 0.00 | 0.00 | 0.00 | 31 | 1009.9 |
| 20260505224532 | 79 | 317 | 2.0 | 11.0 | 0.00 | 0.00 | 0.00 | 30 | 1009.8 |
| 20260505224513 | 79 | 243 | 2.0 | 11.0 | 0.00 | 0.00 | 0.00 | 30 | 1009.5 |
| 20260505224418 | 79 | 258 | 0.0 | 3.0 | 0.00 | 0.00 | 0.00 | 33 | 1009.8 |
| 20260505224324 | 79 | 138 | 0.0 | 3.0 | 0.00 | 0.00 | 0.00 | 31 | 1009.8 |
| 20260505224214 | 79 | 286 | 0.0 | 8.0 | 0.00 | 0.00 | 0.00 | 31 | 1009.8 |
| 20260505224120 | 79 | 88 | 0.0 | 10.0 | 0.00 | 0.00 | 0.00 | 31 | 1009.8 |
| 20260505224033 | 79 | 36 | 0.0 | 10.0 | 0.00 | 0.00 | 0.00 | 30 | 1009.8 |
| 20260505223912 | 80 | 101 | 0.0 | 10.0 | 0.00 | 0.00 | 0.00 | 31 | 1009.8 |
| 20260505223845 | 80 | 265 | 0.0 | 10.0 | 0.00 | 0.00 | 0.00 | 30 | 1009.8 |
| 20260505223711 | 80 | 44 | 0.0 | 10.0 | 0.00 | 0.00 | 0.00 | 30 | 1009.9 |
| 20260505223621 | 80 | 5 | 0.0 | 10.0 | 0.00 | 0.00 | 0.00 | 30 | 1009.9 |
| 20260505223534 | 80 | 342 | 0.0 | 10.0 | 0.00 | 0.00 | 0.00 | 30 | 1009.8 |
| 20260505223420 | 80 | 89 | 1.0 | 10.0 | 0.00 | 0.00 | 0.00 | 30 | 1009.8 |
| 20260505223326 | 80 | 121 | 1.0 | 10.0 | 0.00 | 0.00 | 0.00 | 30 | 1009.9 |
| 20260505223212 | 80 | 327 | 1.0 | 10.0 | 0.00 | 0.00 | 0.00 | 30 | 1009.8 |
| 20260505223122 | 80 | 74 | 1.0 | 13.0 | 0.00 | 0.00 | 0.00 | 30 | 1009.8 |
| 20260505223036 | 80 | 32 | 0.0 | 13.0 | 0.00 | 0.00 | 0.00 | 31 | 1009.8 |
| 20260505223028 | 80 | 55 | 0.0 | 13.0 | 0.00 | 0.00 | 0.00 | 31 | 1009.4 |
| 20260505222913 | 81 | 52 | 0.0 | 13.0 | 0.00 | 0.00 | 0.00 | 30 | 1009.9 |
| 20260505222826 | 81 | 78 | 0.0 | 13.0 | 0.00 | 0.00 | 0.00 | 30 | 1009.9 |
| 20260505222714 | 81 | 42 | 0.0 | 13.0 | 0.00 | 0.00 | 0.00 | 29 | 1009.8 |
| 20260505222619 | 81 | 32 | 1.0 | 13.0 | 0.00 | 0.00 | 0.00 | 29 | 1009.8 |
| 20260505222556 | 81 | 89 | 1.0 | 13.0 | 0.00 | 0.00 | 0.00 | 29 | 1009.9 |
| 20260505222421 | 81 | 23 | 2.0 | 13.0 | 0.00 | 0.00 | 0.00 | 30 | 1009.9 |
| 20260505222327 | 81 | 227 | 2.0 | 13.0 | 0.00 | 0.00 | 0.00 | 31 | 1009.9 |
| 20260505222211 | 81 | 58 | 0.0 | 3.0 | 0.00 | 0.00 | 0.00 | 29 | 1009.9 |
| 20260505222117 | 81 | 23 | 0.0 | 3.0 | 0.00 | 0.00 | 0.00 | 29 | 1010.0 |
| 20260505222023 | 81 | 323 | 0.0 | 3.0 | 0.00 | 0.00 | 0.00 | 33 | 1010.0 |
| 20260505221913 | 81 | 288 | 0.0 | 3.0 | 0.00 | 0.00 | 0.00 | 30 | 1010.0 |
| 20260505221827 | 81 | 325 | 0.0 | 3.0 | 0.00 | 0.00 | 0.00 | 31 | 1010.0 |
| 20260505221732 | 81 | 105 | 0.0 | 3.0 | 0.00 | 0.00 | 0.00 | 31 | 1010.0 |
| 20260505221617 | 81 | 213 | 0.0 | 3.0 | 0.00 | 0.00 | 0.00 | 31 | 1010.0 |
| 20260505221530 | 81 | 121 | 0.0 | 3.0 | 0.00 | 0.00 | 0.00 | 32 | 1010.0 |
| 20260505221520 | 81 | 211 | 0.0 | 3.0 | 0.00 | 0.00 | 0.00 | 32 | 1009.6 |
| 20260505221421 | 81 | 143 | 0.0 | 3.0 | 0.00 | 0.00 | 0.00 | 31 | 1010.0 |
| 20260505221326 | 81 | 58 | 0.0 | 3.0 | 0.00 | 0.00 | 0.00 | 30 | 1010.0 |
| 20260505221212 | 81 | 105 | 0.0 | 0.0 | 0.00 | 0.00 | 0.00 | 31 | 1010.1 |
| 20260505221138 | 81 | 321 | 0.0 | 0.0 | 0.00 | 0.00 | 0.00 | 31 | 1010.1 |
| 20260505221030 | 81 | 317 | 0.0 | 0.0 | 0.00 | 0.00 | 0.00 | 31 | 1010.0 |
| 20260505220915 | 81 | 15 | 0.0 | 0.0 | 0.00 | 0.00 | 0.00 | 31 | 1010.0 |
| 20260505220821 | 81 | 125 | 0.0 | 0.0 | 0.00 | 0.00 | 0.00 | 30 | 1010.0 |
| 20260505220711 | 81 | 203 | 0.0 | 0.0 | 0.00 | 0.00 | 0.00 | 31 | 1010.0 |
| 20260505220624 | 81 | 13 | 0.0 | 0.0 | 0.00 | 0.00 | 0.00 | 31 | 1010.0 |
| 20260505220531 | 81 | 32 | 0.0 | 1.0 | 0.00 | 0.00 | 0.00 | 30 | 1009.9 |
| 20260505220416 | 81 | 302 | 0.0 | 1.0 | 0.00 | 0.00 | 0.00 | 31 | 1010.0 |
| 20260505220349 | 81 | 73 | 0.0 | 6.0 | 0.00 | 0.00 | 0.00 | 33 | 1010.0 |
| 20260505220214 | 81 | 36 | 0.0 | 6.0 | 0.00 | 0.00 | 0.00 | 30 | 1009.8 |
| 20260505220121 | 81 | 50 | 0.0 | 6.0 | 0.00 | 0.00 | 0.00 | 30 | 1009.8 |
| 20260505220054 | 81 | 44 | 0.0 | 6.0 | 0.00 | 0.00 | 0.00 | 31 | 1009.8 |
| 20260505220011 | 81 | 47 | 0.0 | 6.0 | 0.00 | 0.00 | 0.00 | 31 | 1009.5 |
| 20260505215940 | 81 | 315 | 0.0 | 6.0 | 0.00 | 0.00 | 0.00 | 29 | 1009.9 |
| 20260505215824 | 81 | 298 | 0.0 | 6.0 | 0.00 | 0.00 | 0.00 | 31 | 1009.9 |
| 20260505215737 | 81 | 55 | 0.0 | 6.0 | 0.00 | 0.00 | 0.00 | 31 | 1009.9 |
| 20260505215619 | 81 | 40 | 1.0 | 6.0 | 0.00 | 0.00 | 0.00 | 30 | 1009.8 |
| 20260505215509 | 81 | 300 | 2.0 | 6.0 | 0.00 | 0.00 | 0.00 | 31 | 1009.8 |
| 20260505215416 | 81 | 55 | 1.0 | 7.0 | 0.00 | 0.00 | 0.00 | 30 | 1009.9 |
| 20260505215322 | 81 | 48 | 0.0 | 9.0 | 0.00 | 0.00 | 0.00 | 31 | 1009.9 |
| 20260505215228 | 81 | 334 | 0.0 | 9.0 | 0.00 | 0.00 | 0.00 | 29 | 1009.9 |
| 20260505215114 | 81 | 360 | 0.0 | 9.0 | 0.00 | 0.00 | 0.00 | 30 | 1009.8 |
| 20260505215027 | 81 | 36 | 0.0 | 9.0 | 0.00 | 0.00 | 0.00 | 29 | 1009.8 |
| 20260505214917 | 82 | 340 | 0.0 | 9.0 | 0.00 | 0.00 | 0.00 | 29 | 1009.8 |
| 20260505214823 | 82 | 17 | 0.0 | 9.0 | 0.00 | 0.00 | 0.00 | 29 | 1009.8 |
| 20260505214709 | 82 | 266 | 0.0 | 9.0 | 0.00 | 0.00 | 0.00 | 29 | 1009.7 |
| 20260505214640 | 81 | 267 | 0.0 | 9.0 | 0.00 | 0.00 | 0.00 | 29 | 1009.3 |